IDESP IDRoom Temp.Outside Temp.Pressure (milibar)HumidityDate / Time
220443825,19-127,00  24.04.2018 17:12:57
220433825,06-127,00  24.04.2018 17:10:41
220423824,87-127,00  24.04.2018 17:10:17
220413824,75-127,00  24.04.2018 17:09:04
220403823,81-127,00  24.04.2018 17:04:42
220393826,4412,25  10.04.2018 14:37:27
220383826,4413,94  10.04.2018 14:17:25
220373826,5614,00  10.04.2018 13:57:23
220363826,6915,25  10.04.2018 13:37:21
220353826,5612,50  10.04.2018 12:57:09
220343826,7512,69  10.04.2018 12:37:06
220333826,8113,44  10.04.2018 12:17:04
220323826,6215,25  10.04.2018 11:57:02
220313826,6214,94  10.04.2018 11:37:00
220303826,6214,31  10.04.2018 11:16:57
220293826,7514,44  10.04.2018 10:56:55
220283826,6211,38  10.04.2018 10:36:53
220273826,4410,63  10.04.2018 10:16:51
220263826,3110,00  10.04.2018 09:56:49
220253826,319,25  10.04.2018 09:36:47
220243826,069,19  10.04.2018 09:16:45
220233825,948,25  10.04.2018 08:56:43
220223825,888,38  10.04.2018 08:36:41
220213825,758,31  10.04.2018 08:16:39
220203825,699,31  10.04.2018 07:56:37
220193825,568,69  10.04.2018 07:36:35
220183825,629,06  10.04.2018 07:16:33
220173825,819,81  10.04.2018 06:56:31
220163825,759,50  10.04.2018 06:36:29
220153825,759,69  10.04.2018 06:16:26
220143825,817,37  10.04.2018 05:56:24
220133825,947,19  10.04.2018 05:36:22
220123826,006,75  10.04.2018 05:16:20
220113826,006,56  10.04.2018 04:56:18
220103826,066,69  10.04.2018 04:36:16
220093826,256,87  10.04.2018 04:16:13
220083826,447,31  10.04.2018 03:56:11
220073826,447,62  10.04.2018 03:36:09
220063826,507,69  10.04.2018 03:16:07
220053826,508,31  10.04.2018 02:56:05
220043826,507,75  10.04.2018 02:36:03
220033826,627,62  10.04.2018 02:16:01
220023826,628,88  10.04.2018 01:55:59
220013826,699,19  10.04.2018 01:35:56
220003826,759,25  10.04.2018 01:15:54
219993826,879,13  10.04.2018 00:55:52
219983826,819,31  10.04.2018 00:35:50
219973826,949,56  10.04.2018 00:15:48
219963826,949,44  09.04.2018 23:55:46
219953826,949,56  09.04.2018 23:35:43
219943827,069,69  09.04.2018 23:15:41
219933827,0610,38  09.04.2018 22:55:39
219923827,0010,81  09.04.2018 22:35:37
219913826,8711,19  09.04.2018 22:15:35
219903826,7511,44  09.04.2018 21:55:33
219893826,6211,63  09.04.2018 21:35:30
219883826,4411,75  09.04.2018 21:15:28
219873826,5012,00  09.04.2018 20:55:26
219863826,5011,94  09.04.2018 20:35:24
219853826,4412,00  09.04.2018 20:15:22
219843826,4412,13  09.04.2018 19:55:20
219833826,4412,44  09.04.2018 19:35:18
219823826,3112,75  09.04.2018 19:15:16
219813826,1912,81  09.04.2018 18:55:14
219803826,0013,13  09.04.2018 18:35:12
219793825,8113,31  09.04.2018 18:15:10
219783825,7513,00  09.04.2018 17:55:08
219773825,6213,50  09.04.2018 17:35:06
219763825,5015,13  09.04.2018 17:15:04
219753825,3716,31  09.04.2018 16:55:02
219743825,5617,81  09.04.2018 16:35:00
219733825,3116,31  09.04.2018 16:14:57
219723825,3116,31  09.04.2018 15:54:55
219713825,4416,94  09.04.2018 15:34:53
219703825,4417,06  09.04.2018 15:14:51
219693825,3716,87  09.04.2018 14:54:49
219683825,4417,75  09.04.2018 14:34:47
219673825,3717,62  09.04.2018 14:14:45
219663825,6219,06  09.04.2018 13:54:43
219653825,3717,69  09.04.2018 13:34:41
219643825,5017,62  09.04.2018 13:14:38
219633825,6219,19  09.04.2018 12:54:36
219623825,7519,94  09.04.2018 12:34:34
219613825,6920,94  09.04.2018 12:14:32
219603825,5618,69  09.04.2018 11:54:30
219593825,5016,94  09.04.2018 11:34:28
219583825,4417,06  09.04.2018 11:14:26
219573825,4417,19  09.04.2018 10:54:24
219563825,5016,87  09.04.2018 10:34:22
219553825,4416,06  09.04.2018 10:14:20
219543825,4415,38  09.04.2018 09:54:18
219533825,5015,00  09.04.2018 09:34:16
219523825,4414,94  09.04.2018 09:14:13
219513825,3713,88  09.04.2018 08:54:11
219503825,4414,25  09.04.2018 08:34:09
219493825,4414,00  09.04.2018 08:14:07
219483825,4413,44  09.04.2018 07:54:05
219473825,3712,50  09.04.2018 07:34:03
219463825,3711,56  09.04.2018 07:14:01
219453825,3711,25  09.04.2018 06:53:59
219443825,4411,69  09.04.2018 06:33:57
219433825,449,88  09.04.2018 06:13:55
219423825,5011,25  09.04.2018 05:53:53
219413825,5010,63  09.04.2018 05:33:51
219403825,5610,69  09.04.2018 05:13:49
219393825,569,06  09.04.2018 04:53:47
219383825,6910,13  09.04.2018 04:33:45
219373825,7510,19  09.04.2018 04:13:43
219363825,8110,13  09.04.2018 03:53:41
219353825,9410,69  09.04.2018 03:33:39
219343826,0010,63  09.04.2018 03:13:37
219333826,1211,63  09.04.2018 02:53:35
219323826,1211,50  09.04.2018 02:33:33
219313826,1211,12  09.04.2018 02:13:30
219303826,1910,94  09.04.2018 01:53:28
219293826,1911,56  09.04.2018 01:33:26
219283826,2511,44  09.04.2018 01:13:24
219273826,3111,56  09.04.2018 00:53:22
219263826,4411,56  09.04.2018 00:33:20
219253826,3111,44  09.04.2018 00:13:18
219243826,1911,75  08.04.2018 23:53:16
219233826,3712,75  08.04.2018 23:33:14
219223826,2511,94  08.04.2018 23:13:11
219213825,8812,19  08.04.2018 22:53:09
219203825,9411,94  08.04.2018 22:33:07
219193826,1211,63  08.04.2018 22:13:05
219183826,3712,44  08.04.2018 21:53:03
219173826,3112,25  08.04.2018 21:33:01
219163826,2512,13  08.04.2018 21:12:59
219153826,2512,25  08.04.2018 20:52:57
219143826,1212,44  08.04.2018 20:32:55
219133826,1913,06  08.04.2018 20:12:53
219123826,1214,00  08.04.2018 19:52:51
219113826,0014,19  08.04.2018 19:32:49
219103825,8114,44  08.04.2018 19:12:47
219093825,6914,44  08.04.2018 18:52:45
219083825,5014,69  08.04.2018 18:32:43
219073825,4415,00  08.04.2018 18:12:40
219063825,5015,31  08.04.2018 17:52:38
219053825,5015,31  08.04.2018 17:32:36
219043825,7515,50  08.04.2018 17:12:34
219033825,7516,87  08.04.2018 16:52:32
219023825,8817,44  08.04.2018 16:32:30
219013825,5617,87  08.04.2018 16:12:28
219003825,9420,25  08.04.2018 15:52:26
218993825,8818,50  08.04.2018 15:32:24
218983826,3123,12  08.04.2018 15:12:22
218973825,6922,56  08.04.2018 14:52:20
218963825,1921,31  08.04.2018 14:32:18
218953825,1920,00  08.04.2018 14:12:15
218943825,5019,69  08.04.2018 13:52:13
218933825,3719,56  08.04.2018 13:32:11
218923825,1920,62  08.04.2018 13:12:09
218913824,8722,00  08.04.2018 12:52:07
218903825,0620,44  08.04.2018 12:32:05
218893825,0619,25  08.04.2018 12:12:03
218883825,0619,25  08.04.2018 11:52:01
218873825,2519,81  08.04.2018 11:31:59
218863825,2519,56  08.04.2018 11:11:57
218853825,6918,56  08.04.2018 10:51:55
218843825,8118,87  08.04.2018 10:31:53
218833825,7517,19  08.04.2018 10:11:51
218823825,7516,87  08.04.2018 09:51:49
218813825,5614,69  08.04.2018 09:31:46
218803825,6914,06  08.04.2018 09:11:44
218793825,6911,88  08.04.2018 08:51:42
218783825,5610,00  08.04.2018 08:31:40
218773825,509,38  08.04.2018 08:11:38
218763825,507,19  08.04.2018 07:51:36
218753825,567,37  08.04.2018 07:31:34
218743825,446,19  08.04.2018 07:11:32
218733825,505,31  08.04.2018 06:51:30
218723825,564,75  08.04.2018 06:31:28
218713825,625,06  08.04.2018 06:11:26
218703825,754,50  08.04.2018 05:51:24
218693825,694,69  08.04.2018 05:31:22
218683825,813,94  08.04.2018 05:11:20
218673825,944,62  08.04.2018 04:51:18
218663826,005,56  08.04.2018 04:31:16
218653826,066,00  08.04.2018 04:11:14
218643826,126,87  08.04.2018 03:51:12
218633826,255,44  08.04.2018 03:31:09
218623826,256,06  08.04.2018 03:11:07
218613826,316,06  08.04.2018 02:51:05
218603826,316,31  08.04.2018 02:31:03
218593826,127,19  08.04.2018 02:11:01
218583826,448,13  08.04.2018 01:50:59
218573826,448,88  08.04.2018 01:30:57
218563826,378,25  08.04.2018 01:10:55
218553826,378,50  08.04.2018 00:50:52
218543826,318,25  08.04.2018 00:30:50
218533826,1910,19  08.04.2018 00:10:48
218523826,068,31  07.04.2018 23:50:45
218513826,009,25  07.04.2018 23:30:43
218503826,1211,31  07.04.2018 23:10:41
218493826,0010,25  07.04.2018 22:50:39
218483826,0611,88  07.04.2018 22:30:37
218473826,1912,00  07.04.2018 22:10:35
218463826,1212,19  07.04.2018 21:50:33
218453826,0012,37  07.04.2018 21:30:31
218443825,9412,69  07.04.2018 21:10:29
218433825,7513,44  07.04.2018 20:50:27
218423825,6914,13  07.04.2018 20:30:25
218413825,6914,25  07.04.2018 20:10:22
218403825,6914,94  07.04.2018 19:50:20
218393825,5614,56  07.04.2018 19:30:18
218383825,5615,88  07.04.2018 19:10:16
218373825,5017,19  07.04.2018 18:50:14
218363825,3118,12  07.04.2018 18:30:11
218353825,2518,87  07.04.2018 18:10:09
218343825,4419,25  07.04.2018 17:50:07
218333825,5619,75  07.04.2018 17:30:04
218323825,8120,56  07.04.2018 17:10:02
218313826,8122,81  07.04.2018 16:50:00
218303826,6927,44  07.04.2018 16:29:58
218293826,3728,19  07.04.2018 16:09:56
218283826,1927,94  07.04.2018 15:49:54
218273826,1927,37  07.04.2018 15:29:52
218263825,8826,06  07.04.2018 15:09:50
218253825,2524,87  07.04.2018 14:49:48
218243825,3124,37  07.04.2018 14:29:46
218233824,8724,44  07.04.2018 14:09:44
218223824,7525,88  07.04.2018 13:49:42
218213824,3125,44  07.04.2018 13:29:40
218203824,3724,44  07.04.2018 13:09:38
218193824,1922,31  07.04.2018 12:29:29
218183824,3121,06  07.04.2018 12:09:18
218173824,3717,94  07.04.2018 11:28:57
218163824,3718,31  07.04.2018 11:08:45
218153824,4417,00  07.04.2018 10:08:15
218143824,5017,06  07.04.2018 09:48:02
218133824,3114,06  07.04.2018 09:07:47
218123824,3711,44  07.04.2018 08:47:34
218113824,258,63  07.04.2018 08:07:15
218103824,256,37  07.04.2018 07:47:02
218093824,194,56  07.04.2018 07:06:43
218083824,063,69  07.04.2018 06:46:40
218073824,192,62  07.04.2018 06:06:21
218063824,253,50  07.04.2018 05:46:06
218053824,252,69  07.04.2018 05:05:48
218043824,313,19  07.04.2018 04:45:33
218033824,503,44  07.04.2018 04:05:13
218023824,563,12  07.04.2018 03:45:00
218013824,695,19  07.04.2018 03:24:48
218003824,564,75  07.04.2018 03:04:46
217993824,695,25  07.04.2018 02:44:44
217983824,635,06  07.04.2018 02:24:42
217973824,755,25  07.04.2018 02:04:39
217963824,754,81  07.04.2018 01:44:37
217953824,876,12  07.04.2018 01:24:35
217943824,876,56  07.04.2018 01:04:33
217933824,946,75  07.04.2018 00:44:30
217923825,066,87  07.04.2018 00:24:28
217913825,197,44  07.04.2018 00:04:26
217903825,127,56  06.04.2018 23:44:24
217893825,317,87  06.04.2018 23:24:22
217883825,319,13  06.04.2018 23:04:20
217873825,379,06  06.04.2018 22:44:18
217863825,3710,69  06.04.2018 22:24:16
217853825,4411,12  06.04.2018 22:04:14
217843825,3712,19  06.04.2018 21:44:11
217833825,3713,00  06.04.2018 21:24:09
217823825,3711,19  06.04.2018 21:04:07
217813825,3111,63  06.04.2018 20:44:04
217803825,1912,94  06.04.2018 20:24:02
217793825,0613,31  06.04.2018 20:04:00
217783824,8714,00  06.04.2018 19:43:58
217773824,6915,38  06.04.2018 19:23:56
217763824,5017,19  06.04.2018 19:03:54
217753824,3117,94  06.04.2018 18:43:52
217743824,5018,44  06.04.2018 18:23:50
217733824,5618,81  06.04.2018 18:03:48
217723824,8119,25  06.04.2018 17:43:46
217713825,0019,62  06.04.2018 17:23:44
217703825,5620,37  06.04.2018 17:03:41
217693825,9423,44  06.04.2018 16:43:38
217683825,9426,19  06.04.2018 16:23:36
217673825,6228,50  06.04.2018 16:03:34
217663825,5029,75  06.04.2018 15:43:32
217653825,2529,75  06.04.2018 15:23:30
217643825,0030,50  06.04.2018 15:03:28
217633824,6324,75  06.04.2018 14:43:26
217623824,3124,63  06.04.2018 14:23:24
217613824,0625,50  06.04.2018 14:03:22
217603823,8125,31  06.04.2018 13:43:20
217593823,5025,88  06.04.2018 13:23:17
217583823,2523,00  06.04.2018 13:03:15
217573823,3822,56  06.04.2018 12:43:13
217563823,3120,06  06.04.2018 12:23:11
217553823,4420,06  06.04.2018 12:03:09
217543823,5016,87  06.04.2018 11:43:07
217533823,6216,19  06.04.2018 11:23:05
217523823,5616,25  06.04.2018 11:03:03
217513823,5015,25  06.04.2018 10:43:00
217503823,5614,19  06.04.2018 10:22:58
217493823,5613,31  06.04.2018 10:02:56
217483823,6212,75  06.04.2018 09:42:54
217473823,5611,19  06.04.2018 09:22:52
217463823,629,75  06.04.2018 09:02:50
217453823,508,13  06.04.2018 08:42:48
217443823,506,37  06.04.2018 08:22:46
217433823,446,37  06.04.2018 08:02:44
217423823,383,62  06.04.2018 07:42:42
217413823,252,75  06.04.2018 07:22:39
217403823,561,75  06.04.2018 07:02:37
217393823,310,81  06.04.2018 06:42:35
217383823,440,37  06.04.2018 06:22:33
217373823,500,62  06.04.2018 06:02:31
217363823,690,50  06.04.2018 05:42:29
217353823,751,00  06.04.2018 05:22:27
217343823,691,12  06.04.2018 05:02:25
217333823,751,37  06.04.2018 04:42:23
217323823,871,75  06.04.2018 04:22:21
217313824,062,00  06.04.2018 04:02:19
217303824,192,19  06.04.2018 03:42:15
217293824,252,44  06.04.2018 03:22:13
217283824,312,25  06.04.2018 03:02:11
217273824,372,37  06.04.2018 02:42:09
217263824,442,81  06.04.2018 02:22:07
217253824,503,81  06.04.2018 02:02:05
217243824,563,50  06.04.2018 01:42:03
217233824,633,75  06.04.2018 01:22:01
217223824,754,31  06.04.2018 01:01:58
217213824,754,62  06.04.2018 00:41:56
217203824,754,25  06.04.2018 00:21:54
217193824,814,81  06.04.2018 00:01:52
217183825,005,25  05.04.2018 23:41:50
217173824,875,62  05.04.2018 23:21:47
217163824,945,56  05.04.2018 23:01:45
217153824,876,06  05.04.2018 22:41:43
217143824,816,50  05.04.2018 22:21:41
217133824,697,44  05.04.2018 22:01:39
217123824,637,69  05.04.2018 21:41:37
217113824,448,31  05.04.2018 21:21:35
217103824,319,88  05.04.2018 21:01:33
217093824,2511,38  05.04.2018 20:41:31
217083824,0010,63  05.04.2018 20:21:29
217073824,0610,56  05.04.2018 20:01:27
217063824,3110,94  05.04.2018 19:41:25
217053824,0011,81  05.04.2018 19:21:23
217043824,0013,00  05.04.2018 19:01:21
217033823,8113,75  05.04.2018 18:41:18
217023823,8114,63  05.04.2018 18:21:12
217013823,9415,13  05.04.2018 18:01:10
217003824,0616,00  05.04.2018 17:41:08
216993824,4415,94  05.04.2018 17:21:06
216983825,1916,06  05.04.2018 17:01:04
216973825,4421,25  05.04.2018 16:41:02
216963825,3122,50  05.04.2018 16:21:00
216953825,1223,00  05.04.2018 16:00:57
216943824,8123,00  05.04.2018 15:40:55
216933824,5022,50  05.04.2018 15:20:53
216923824,1923,87  05.04.2018 15:00:51
216913823,7520,69  05.04.2018 14:40:49
216903823,5020,94  05.04.2018 14:20:47
216893823,1919,19  05.04.2018 14:00:45
216883822,8122,06  05.04.2018 13:40:43
216873823,0018,50  05.04.2018 13:20:41
216863822,8718,87  05.04.2018 13:00:39
216853822,8719,19  05.04.2018 12:40:37
216843822,9417,62  05.04.2018 12:20:34
216833822,9414,56  05.04.2018 12:00:32
216823822,8714,06  05.04.2018 11:40:30
216813822,8713,38  05.04.2018 11:20:28
216803823,0612,50  05.04.2018 11:00:26
216793823,0612,81  05.04.2018 10:40:24
216783823,0012,37  05.04.2018 10:20:22
216773823,0611,56  05.04.2018 10:00:20
216763823,069,81  05.04.2018 09:40:17
216753823,067,81  05.04.2018 09:20:15
216743823,006,25  05.04.2018 09:00:13
216733823,005,00  05.04.2018 08:40:11
216723822,813,37  05.04.2018 08:20:09
216713822,623,62  05.04.2018 08:00:07
216703822,191,25  05.04.2018 07:40:05
216693822,060,50  05.04.2018 07:20:03
216683822,06-0,62  05.04.2018 07:00:01
216673822,00-1,31  05.04.2018 06:39:59
216663822,00-1,56  05.04.2018 06:19:57
216653822,19-1,37  05.04.2018 05:59:54
216643822,31-1,62  05.04.2018 05:39:52
216633822,37-1,50  05.04.2018 05:19:50
216623822,50-1,31  05.04.2018 04:59:48
216613822,50-1,50  05.04.2018 04:39:46
216603822,62-0,69  05.04.2018 04:19:44
216593822,69-0,81  05.04.2018 03:59:42
216583822,75-0,69  05.04.2018 03:39:40
216573822,81-0,50  05.04.2018 03:19:38
216563822,87-0,69  05.04.2018 02:59:36
216553822,94-0,56  05.04.2018 02:39:34
216543822,94-0,19  05.04.2018 02:19:32
216533823,000,19  05.04.2018 01:59:30
216523823,060,37  05.04.2018 01:39:28
216513823,060,88  05.04.2018 01:19:25
216503823,191,12  05.04.2018 00:59:23
216493823,191,44  05.04.2018 00:39:20
216483823,251,62  05.04.2018 00:19:18
216473823,311,69  04.04.2018 23:59:16
216463823,312,44  04.04.2018 23:39:14
216453823,443,06  04.04.2018 23:19:12
216443823,313,00  04.04.2018 22:59:09
216433823,313,87  04.04.2018 22:39:07
216423823,314,12  04.04.2018 22:19:05
216413823,384,69  04.04.2018 21:59:03
216403823,444,75  04.04.2018 21:39:01
216393823,565,12  04.04.2018 21:18:59
216383823,626,25  04.04.2018 20:58:57
216373823,816,87  04.04.2018 20:38:55
216363823,817,56  04.04.2018 20:18:53
216353823,697,62  04.04.2018 19:58:51
216343823,817,94  04.04.2018 19:38:49
216333823,698,50  04.04.2018 19:18:47
216323823,449,88  04.04.2018 18:58:45
216313823,4411,12  04.04.2018 18:38:42
216303823,5011,88  04.04.2018 18:18:40
216293823,3112,31  04.04.2018 17:58:38
216283823,4413,00  04.04.2018 17:38:36
216273823,8713,38  04.04.2018 17:18:33
216263825,0613,75  04.04.2018 16:58:31
216253825,3121,81  04.04.2018 16:38:29
216243825,0023,06  04.04.2018 16:18:27
216233824,6322,31  04.04.2018 15:58:25
216223824,3121,81  04.04.2018 15:38:23
216213823,8720,00  04.04.2018 15:18:21
216203823,6217,50  04.04.2018 14:58:19
216193823,2521,25  04.04.2018 14:38:17
216183823,0017,87  04.04.2018 14:18:15
216173822,3716,94  04.04.2018 13:58:13
216163822,8116,00  04.04.2018 13:38:10
216153822,6915,56  04.04.2018 13:18:08
216143822,6914,69  04.04.2018 12:58:06
216133822,6212,69  04.04.2018 12:38:04
216123822,5613,00  04.04.2018 12:18:02
216113822,569,25  04.04.2018 11:58:00
216103822,567,87  04.04.2018 11:37:59
216093822,877,69  04.04.2018 11:17:46
216083822,947,25  04.04.2018 10:57:44
216073823,007,69  04.04.2018 10:37:43
216063823,125,31  04.04.2018 09:57:23
216053823,255,06  04.04.2018 09:37:10
216043822,874,06  04.04.2018 08:56:53
216033822,312,81  04.04.2018 08:36:51
216023822,310,62  04.04.2018 08:16:48
216013822,310,25  04.04.2018 07:56:46
216003822,25-1,62  04.04.2018 07:36:44
215993822,19-2,31  04.04.2018 07:16:42
215983822,25-2,87  04.04.2018 06:56:40
215973822,25-3,94  04.04.2018 06:36:38
215963822,50-4,50  04.04.2018 06:16:36
215953822,62-4,44  04.04.2018 05:56:33
215943822,75-3,62  04.04.2018 05:36:31
215933822,81-3,87  04.04.2018 05:16:29
215923823,00-3,44  04.04.2018 04:56:27
215913823,00-4,00  04.04.2018 04:36:25
215903823,12-3,62  04.04.2018 04:16:23
215893823,06-3,44  04.04.2018 03:56:21
215883823,12-3,37  04.04.2018 03:36:19
215873823,19-3,31  04.04.2018 03:16:17
215863823,19-3,19  04.04.2018 02:56:15
215853823,31-2,87  04.04.2018 02:36:13
215843823,25-2,69  04.04.2018 02:16:11
215833823,31-2,69  04.04.2018 01:56:09
215823823,25-2,12  04.04.2018 01:36:07
215813823,31-1,69  04.04.2018 01:16:04
215803823,25-1,31  04.04.2018 00:56:02
215793823,19-0,75  04.04.2018 00:36:00
215783823,12-1,19  04.04.2018 00:15:58
215773823,00-0,50  03.04.2018 23:55:56
215763822,94-0,50  03.04.2018 23:35:54
215753822,87-0,62  03.04.2018 23:15:51
215743822,94-0,19  03.04.2018 22:55:49
215733823,001,12  03.04.2018 22:35:47
215723823,000,50  03.04.2018 22:15:45
215713823,121,56  03.04.2018 21:55:43
215703823,191,12  03.04.2018 21:35:41
215693823,251,12  03.04.2018 21:15:39
215683823,191,62  03.04.2018 20:55:37
215673823,251,62  03.04.2018 20:35:35
215663823,252,00  03.04.2018 20:15:33
215653823,252,31  03.04.2018 19:55:31
215643823,192,87  03.04.2018 19:35:29
215633823,063,62  03.04.2018 19:15:27
215623822,944,81  03.04.2018 18:55:25
215613822,875,25  03.04.2018 18:35:23
215603822,755,87  03.04.2018 18:15:21
215593822,756,75  03.04.2018 17:55:19
215583822,756,50  03.04.2018 17:35:16
215573822,946,94  03.04.2018 17:15:14
215563823,568,06  03.04.2018 16:55:12
215553823,508,50  03.04.2018 16:35:10
215543823,5013,62  03.04.2018 16:15:08
215533823,5612,31  03.04.2018 15:55:06
215523822,817,06  03.04.2018 15:35:04
215513823,389,69  03.04.2018 15:15:02
215503823,317,44  03.04.2018 14:55:00
215493823,5610,69  03.04.2018 14:34:58
215483823,1911,81  03.04.2018 14:14:56
215473823,128,56  03.04.2018 13:54:54
215463822,8110,56  03.04.2018 13:34:52
215453822,6911,25  03.04.2018 13:14:50
215443822,8110,19  03.04.2018 12:54:48
215433822,756,62  03.04.2018 12:34:45
215423822,819,44  03.04.2018 12:14:43
215413822,816,87  03.04.2018 11:54:41
215403822,875,69  03.04.2018 11:34:39
215393822,946,00  03.04.2018 11:14:37
215383823,006,19  03.04.2018 10:54:35
215373822,814,37  03.04.2018 10:34:33
215363823,005,25  03.04.2018 10:14:31
215353823,125,87  03.04.2018 09:54:29
215343823,005,00  03.04.2018 09:34:27
215333823,124,37  03.04.2018 09:14:25
215323823,063,31  03.04.2018 08:54:23
215313823,123,50  03.04.2018 08:34:21
215303823,062,37  03.04.2018 08:14:19
215293823,062,06  03.04.2018 07:54:16
215283823,000,44  03.04.2018 07:34:14
215273822,94-0,37  03.04.2018 07:14:12
215263822,87-0,44  03.04.2018 06:54:10
215253822,94-0,50  03.04.2018 06:34:08
215243823,00-0,94  03.04.2018 06:14:06
215233823,19-0,88  03.04.2018 05:54:04
215223823,31-0,88  03.04.2018 05:34:02
215213823,38-0,75  03.04.2018 05:13:59
215203823,44-0,56  03.04.2018 04:53:57
215193823,50-0,56  03.04.2018 04:33:55
215183823,62-0,44  03.04.2018 04:13:53
215173823,75-0,62  03.04.2018 03:53:51
215163823,75-0,06  03.04.2018 03:33:49
215153823,75-0,06  03.04.2018 03:13:47
215143823,87-0,31  03.04.2018 02:53:45
215133823,87-0,25  03.04.2018 02:33:43
215123823,940,06  03.04.2018 02:13:41
215113824,00-0,19  03.04.2018 01:53:39
215103824,060,19  03.04.2018 01:33:36
215093824,310,50  03.04.2018 01:13:34
215083824,440,75  03.04.2018 00:53:31
215073824,560,44  03.04.2018 00:33:29
215063824,561,06  03.04.2018 00:13:27
215053824,631,31  02.04.2018 23:53:25
215043824,631,62  02.04.2018 23:33:21
215033824,631,56  02.04.2018 23:13:19
215023824,691,25  02.04.2018 22:53:17
215013824,751,37  02.04.2018 22:33:15
215003824,871,94  02.04.2018 22:13:13
214993824,871,62  02.04.2018 21:53:11
214983824,941,50  02.04.2018 21:33:09
214973825,061,69  02.04.2018 21:13:07
214963825,251,75  02.04.2018 20:53:05
214953825,501,56  02.04.2018 20:33:02
214943825,561,37  02.04.2018 20:13:00
214933825,311,31  02.04.2018 19:52:58
214923825,251,31  02.04.2018 19:32:56
214913825,121,12  02.04.2018 19:12:54
214903824,871,12  02.04.2018 18:52:52
214893824,871,31  02.04.2018 18:32:50
214883825,121,37  02.04.2018 18:12:48
214873824,941,00  02.04.2018 17:52:46
214863825,370,56  02.04.2018 17:32:44
214853825,000,44  02.04.2018 17:12:42
214843824,691,06  02.04.2018 16:52:40
214833824,501,81  02.04.2018 16:32:38
214823824,442,94  02.04.2018 16:12:36
214813824,192,62  02.04.2018 15:52:33
214803824,253,62  02.04.2018 15:32:31
214793824,313,87  02.04.2018 15:12:29
214783824,444,94  02.04.2018 14:52:27
214773824,638,75  02.04.2018 14:32:25
214763825,0615,00  02.04.2018 14:12:23
214753825,1917,37  02.04.2018 13:52:21
214743825,0018,12  02.04.2018 13:32:19
214733824,8718,37  02.04.2018 13:12:17
214723825,0618,81  02.04.2018 12:52:15
214713824,9415,63  02.04.2018 12:32:12
214703825,0017,00  02.04.2018 12:12:10
214693825,0615,06  02.04.2018 11:52:08
214683825,0015,00  02.04.2018 11:32:06
214673825,0014,06  02.04.2018 11:12:04
214663825,0614,13  02.04.2018 10:52:02
214653825,1214,63  02.04.2018 10:32:00
214643825,1214,69  02.04.2018 10:11:58
214633825,0613,56  02.04.2018 09:51:56
214623825,0613,56  02.04.2018 09:31:54
214613825,0013,69  02.04.2018 09:11:52
214603824,9413,75  02.04.2018 08:51:49
214593824,9412,50  02.04.2018 08:31:47
214583824,879,44  02.04.2018 08:11:45
214573824,696,81  02.04.2018 07:51:43
214563824,446,31  02.04.2018 07:31:41
214553824,375,62  02.04.2018 07:11:39
214543824,374,62  02.04.2018 06:51:37
214533824,503,94  02.04.2018 06:31:35
214523824,633,69  02.04.2018 06:11:33
214513824,753,56  02.04.2018 05:51:31
214503824,873,94  02.04.2018 05:31:29
214493825,004,69  02.04.2018 05:11:27
214483825,005,62  02.04.2018 04:51:25
214473825,065,00  02.04.2018 04:31:23
214463825,124,69  02.04.2018 04:11:21
214453825,194,81  02.04.2018 03:51:19
214443825,314,37  02.04.2018 03:31:17
214433825,375,19  02.04.2018 03:11:15
214423825,375,56  02.04.2018 02:51:13
214413825,445,44  02.04.2018 02:31:11
214403825,446,00  02.04.2018 02:11:08
214393825,506,06  02.04.2018 01:51:05
214383825,506,44  02.04.2018 01:31:03
214373825,626,69  02.04.2018 01:11:01
214363825,757,62  02.04.2018 00:50:58
214353825,818,13  02.04.2018 00:30:56
214343825,818,50  02.04.2018 00:10:54
214333825,888,69  01.04.2018 23:50:52
214323825,949,06  01.04.2018 23:30:50
214313825,949,56  01.04.2018 23:10:48
214303826,069,81  01.04.2018 22:50:46
214293825,949,94  01.04.2018 22:30:44
214283826,1210,25  01.04.2018 22:10:42
214273826,0010,69  01.04.2018 21:50:39
214263826,0011,75  01.04.2018 21:30:37
214253825,9411,38  01.04.2018 21:10:35
214243825,9411,44  01.04.2018 20:50:33
214233825,8112,44  01.04.2018 20:30:31
214223825,6912,69  01.04.2018 20:10:29
214213825,5012,81  01.04.2018 19:50:27
214203825,4413,06  01.04.2018 19:30:25
214193825,2513,31  01.04.2018 19:10:23
214183825,1914,06  01.04.2018 18:50:20
214173824,8115,06  01.04.2018 18:30:18
214163824,8115,44  01.04.2018 18:10:16
214153825,1216,12  01.04.2018 17:50:14
214143825,0616,87  01.04.2018 17:30:12
214133825,8817,00  01.04.2018 17:10:10
214123826,5017,87  01.04.2018 16:50:08
214113826,9422,94  01.04.2018 16:30:06
214103826,6222,94  01.04.2018 16:10:04
214093826,3722,31  01.04.2018 15:50:02
214083826,0623,12  01.04.2018 15:30:00
214073825,7522,81  01.04.2018 15:09:58
214063825,0023,12  01.04.2018 14:49:55
214053825,0621,25  01.04.2018 14:29:53
214043824,8121,06  01.04.2018 14:09:51
214033824,2519,81  01.04.2018 13:49:49
214023824,5019,37  01.04.2018 13:29:47
214013824,4419,31  01.04.2018 13:09:45
214003824,3117,81  01.04.2018 12:49:43
213993824,3717,00  01.04.2018 12:29:41
213983824,4417,44  01.04.2018 12:09:39
213973824,4413,69  01.04.2018 11:49:37
213963824,4413,50  01.04.2018 11:29:34
213953824,4413,69  01.04.2018 11:09:32
213943824,5612,69  01.04.2018 10:49:30
213933824,5612,37  01.04.2018 10:29:28
213923824,5611,63  01.04.2018 10:09:26
213913824,5610,69  01.04.2018 09:49:24
213903824,5610,25  01.04.2018 09:29:22
213893824,637,69  01.04.2018 09:09:20
213883824,565,94  01.04.2018 08:49:18
213873824,695,19  01.04.2018 08:29:16
213863824,503,94  01.04.2018 08:09:13
213853824,563,69  01.04.2018 07:49:11
213843824,441,81  01.04.2018 07:29:09
213833824,310,75  01.04.2018 07:09:07
213823824,250,19  01.04.2018 06:49:05
213813824,37-0,25  01.04.2018 06:29:02
213803824,31-0,13  01.04.2018 06:09:00
213793824,44-0,25  01.04.2018 05:48:58
213783824,630,19  01.04.2018 05:28:56
213773824,69-0,13  01.04.2018 05:08:54
213763824,81-0,31  01.04.2018 04:48:52
213753824,870,44  01.04.2018 04:28:49
213743824,94-0,06  01.04.2018 04:08:47
213733825,120,50  01.04.2018 03:48:45
213723825,120,62  01.04.2018 03:28:43
213713825,310,50  01.04.2018 03:08:41
213703825,191,12  01.04.2018 02:48:39
213693825,311,06  01.04.2018 02:28:37
213683825,371,50  01.04.2018 02:08:35
213673825,371,25  01.04.2018 01:48:33
213663825,441,44  01.04.2018 01:28:31
213653825,442,12  01.04.2018 01:08:29
213643825,502,12  01.04.2018 00:48:26
213633825,692,75  01.04.2018 00:28:24
213623825,623,50  01.04.2018 00:08:22
213613825,753,37  31.03.2018 23:48:20
213603825,753,94  31.03.2018 23:28:18
213593826,124,31  31.03.2018 23:08:16
213583826,003,94  31.03.2018 22:48:14
213573826,064,62  31.03.2018 22:28:12
213563826,005,06  31.03.2018 22:08:10
213553826,005,94  31.03.2018 21:48:08
213543826,066,25  31.03.2018 21:28:06
213533826,066,94  31.03.2018 21:08:04
213523826,067,31  31.03.2018 20:48:01
213513825,948,19  31.03.2018 20:27:59
213503825,948,56  31.03.2018 20:07:57
213493825,819,00  31.03.2018 19:47:56
213483825,699,50  31.03.2018 19:27:54
213473825,6910,50  31.03.2018 19:07:52
213463825,5610,94  31.03.2018 18:47:50
213453825,2511,63  31.03.2018 18:27:47
213443825,3712,25  31.03.2018 18:07:45
213433825,5612,63  31.03.2018 17:47:43
213423825,8812,75  31.03.2018 17:27:41
213413826,3113,25  31.03.2018 17:07:39
213403827,2513,94  31.03.2018 16:47:37
213393827,3725,19  31.03.2018 16:27:35
213383827,0620,50  31.03.2018 16:07:33
213373826,6222,44  31.03.2018 15:47:31
213363826,1220,94  31.03.2018 15:27:28
213353825,6918,31  31.03.2018 15:07:26
213343825,5618,94  31.03.2018 14:47:24
213333825,2516,94  31.03.2018 14:27:22
213323824,8718,25  31.03.2018 14:07:20
213313824,8117,06  31.03.2018 13:47:17
213303824,7515,94  31.03.2018 13:27:15
213293824,6916,81  31.03.2018 13:07:12
213283824,6913,81  31.03.2018 12:47:10
213273824,7513,62  31.03.2018 12:27:08
213263824,6914,69  31.03.2018 12:07:06
213253824,819,38  31.03.2018 11:47:04
213243824,8710,00  31.03.2018 11:27:02
213233825,068,81  31.03.2018 11:07:00
213223825,198,06  31.03.2018 10:46:58
213213825,378,56  31.03.2018 10:26:56
213203825,448,31  31.03.2018 10:06:54
213193825,447,62  31.03.2018 09:46:52
213183825,507,37  31.03.2018 09:26:50
213173825,376,94  31.03.2018 09:06:48
213163825,447,19  31.03.2018 08:46:46
213153825,314,81  31.03.2018 08:26:43
213143825,194,94  31.03.2018 08:06:41
213133825,313,50  31.03.2018 07:46:39
213123825,252,69  31.03.2018 07:26:37
213113825,311,81  31.03.2018 07:06:36
213103825,251,00  31.03.2018 06:46:34
213093825,371,12  31.03.2018 06:26:32
213083825,561,44  31.03.2018 06:06:30
213073825,562,00  31.03.2018 05:46:27
213063825,622,50  31.03.2018 05:26:25
213053825,622,94  31.03.2018 05:06:23
213043825,693,25  31.03.2018 04:46:21
213033825,883,50  31.03.2018 04:26:19
213023826,063,94  31.03.2018 04:06:17
213013826,063,87  31.03.2018 03:46:15
213003826,313,81  31.03.2018 03:26:13
212993826,313,81  31.03.2018 03:06:11
212983826,253,19  31.03.2018 02:46:09
212973826,373,25  31.03.2018 02:26:06
212963826,443,37  31.03.2018 02:06:04
212953826,563,62  31.03.2018 01:46:02
212943826,623,62  31.03.2018 01:26:00
212933826,693,75  31.03.2018 01:05:55
212923826,753,81  31.03.2018 00:45:53
212913826,694,00  31.03.2018 00:25:51
212903826,693,87  31.03.2018 00:05:48
212893826,753,87  30.03.2018 23:45:46
212883826,874,12  30.03.2018 23:25:44
212873826,874,19  30.03.2018 23:05:42
212863826,814,12  30.03.2018 22:45:40
212853826,694,31  30.03.2018 22:25:38
212843826,565,31  30.03.2018 22:05:36
212833826,444,94  30.03.2018 21:45:34
212823826,505,00  30.03.2018 21:25:32
212813826,625,06  30.03.2018 21:05:30
212803826,625,25  30.03.2018 20:45:28
212793826,505,25  30.03.2018 20:25:25
212783826,565,12  30.03.2018 20:05:23
212773826,445,44  30.03.2018 19:45:22
212763826,375,37  30.03.2018 19:25:20
212753826,375,56  30.03.2018 19:05:18
212743826,506,12  30.03.2018 18:45:16
212733826,446,56  30.03.2018 18:25:14
212723826,316,75  30.03.2018 18:05:12
212713826,316,94  30.03.2018 17:45:10
212703826,127,19  30.03.2018 17:25:07
212693826,316,94  30.03.2018 17:05:05
212683826,317,44  30.03.2018 16:45:03
212673826,817,69  30.03.2018 16:25:01
212663826,8712,25  30.03.2018 16:04:59
212653826,629,63  30.03.2018 15:44:57
212643826,6912,31  30.03.2018 15:24:55
212633826,5610,81  30.03.2018 15:04:53
212623826,257,19  30.03.2018 14:44:51
212613826,377,75  30.03.2018 14:24:49
212603826,447,37  30.03.2018 14:04:47
212593826,376,69  30.03.2018 13:44:45
212583826,446,37  30.03.2018 13:24:43
212573826,445,94  30.03.2018 13:04:40
212563826,447,37  30.03.2018 12:44:38
212553826,447,87  30.03.2018 12:24:36
212543826,255,25  30.03.2018 12:04:33
212533826,254,44  30.03.2018 11:44:31
212523826,063,87  30.03.2018 11:24:29
212513826,123,69  30.03.2018 11:04:27
212503826,123,50  30.03.2018 10:44:25
212493826,004,44  30.03.2018 10:24:22
212483825,943,69  30.03.2018 10:04:20
212473825,693,56  30.03.2018 09:44:18
212463825,813,62  30.03.2018 09:24:16
212453825,814,44  30.03.2018 09:04:14
212443825,814,87  30.03.2018 08:44:12
212433825,814,62  30.03.2018 08:24:09
212423825,754,75  30.03.2018 08:04:07
212413825,694,37  30.03.2018 07:44:05
212403825,444,25  30.03.2018 07:24:03
212393825,504,00  30.03.2018 07:04:01
212383825,503,81  30.03.2018 06:44:00
212373825,503,81  30.03.2018 06:23:58
212363825,753,50  30.03.2018 06:03:56
212353825,883,62  30.03.2018 05:43:54
212343825,943,69  30.03.2018 05:23:52
212333826,063,56  30.03.2018 05:03:49
212323826,253,56  30.03.2018 04:43:47
212313826,313,81  30.03.2018 04:23:45
212303826,373,81  30.03.2018 04:03:43
212293826,443,81  30.03.2018 03:43:41
212283826,443,62  30.03.2018 03:23:39
212273826,443,62  30.03.2018 03:03:37
212263826,563,56  30.03.2018 02:43:35
212253826,623,50  30.03.2018 02:23:33
212243826,693,56  30.03.2018 02:03:31
212233826,693,75  30.03.2018 01:43:29
212223826,753,56  30.03.2018 01:23:26
212213826,813,87  30.03.2018 01:03:24
212203826,873,69  30.03.2018 00:43:22
212193826,944,12  30.03.2018 00:23:20
212183826,944,12  30.03.2018 00:03:18
212173826,943,69  29.03.2018 23:43:10
212163826,813,69  29.03.2018 23:23:08
212153826,754,12  29.03.2018 23:03:06
212143826,754,31  29.03.2018 22:43:04
212133826,754,56  29.03.2018 22:23:02
212123826,755,12  29.03.2018 22:03:00
212113826,565,37  29.03.2018 21:42:57
212103826,565,50  29.03.2018 21:22:55
212093826,505,87  29.03.2018 21:02:53
212083826,375,94  29.03.2018 20:42:50
212073826,126,44  29.03.2018 20:02:40
212063826,066,50  29.03.2018 19:42:38
212053825,816,44  29.03.2018 19:22:36
212043825,886,50  29.03.2018 19:02:34
212033826,066,94  29.03.2018 18:42:32
212023826,196,94  29.03.2018 18:22:29
212013826,067,81  29.03.2018 18:02:27
212003826,378,13  29.03.2018 17:42:25
211993826,628,69  29.03.2018 17:22:23
211983826,759,19  29.03.2018 17:02:21
211973827,3110,44  29.03.2018 16:42:19
211963827,9413,44  29.03.2018 16:22:17
211953827,4414,69  29.03.2018 16:02:14
211943827,5613,62  29.03.2018 15:42:12
211933827,5013,06  29.03.2018 15:22:10
211923827,4413,94  29.03.2018 15:02:08
211913827,1313,81  29.03.2018 14:42:06
211903826,9413,25  29.03.2018 14:22:04
211893827,0013,69  29.03.2018 14:02:02
211883826,9415,13  29.03.2018 13:41:59
211873826,8115,50  29.03.2018 13:21:57
211863826,8714,25  29.03.2018 13:01:55
211853826,8113,81  29.03.2018 12:41:53
211843826,7512,31  29.03.2018 12:21:51
211833826,758,06  29.03.2018 12:01:49
211823826,8711,38  29.03.2018 11:41:47
211813826,9412,13  29.03.2018 11:21:45
211803826,9413,19  29.03.2018 11:01:42
211793826,8112,25  29.03.2018 10:41:40
211783826,7512,31  29.03.2018 10:21:38
211773826,8711,44  29.03.2018 10:01:36
211763826,8110,69  29.03.2018 09:41:34
211753826,6911,50  29.03.2018 09:21:32
211743826,5610,69  29.03.2018 09:01:30
211733826,569,81  29.03.2018 08:41:28
211723826,449,88  29.03.2018 08:21:26
211713826,318,94  29.03.2018 08:01:24
211703826,128,56  29.03.2018 07:41:22
211693826,068,75  29.03.2018 07:21:19
211683825,818,56  29.03.2018 07:01:17
211673825,947,87  29.03.2018 06:41:15
211663825,888,06  29.03.2018 06:21:13
211653826,007,94  29.03.2018 06:01:11
211643825,947,44  29.03.2018 05:41:09
211633825,817,56  29.03.2018 05:21:07
211623826,128,38  29.03.2018 05:01:05
211613826,127,69  29.03.2018 04:41:03
211603826,068,25  29.03.2018 04:21:00
211593826,199,31  29.03.2018 04:00:58
211583826,259,81  29.03.2018 03:40:57
211573826,199,81  29.03.2018 03:20:54
211563826,199,88  29.03.2018 03:00:52
211553826,259,88  29.03.2018 02:40:50
211543826,259,69  29.03.2018 02:20:48
211533826,129,69  29.03.2018 02:00:46
211523826,1210,19  29.03.2018 01:40:44
211513826,1910,31  29.03.2018 01:20:42
211503826,2510,56  29.03.2018 01:00:40
211493826,3110,69  29.03.2018 00:40:37
211483826,5010,75  29.03.2018 00:20:35
211473826,4411,00  29.03.2018 00:00:33
211463826,6910,94  28.03.2018 23:40:31
211453826,5011,25  28.03.2018 23:20:29
211443826,3711,00  28.03.2018 23:00:27
211433826,2511,25  28.03.2018 22:40:25
211423826,5011,69  28.03.2018 22:20:23
211413826,5012,50  28.03.2018 22:00:21
211403826,4412,88  28.03.2018 21:40:18
211393826,5013,00  28.03.2018 21:20:15
211383826,4413,19  28.03.2018 21:00:13
211373826,3113,31  28.03.2018 20:40:11
211363826,1913,19  28.03.2018 20:20:09
211353826,0613,31  28.03.2018 20:00:07
211343826,0013,69  28.03.2018 19:40:05
211333825,8113,69  28.03.2018 19:20:03
211323825,7513,81  28.03.2018 19:00:01
211313825,3114,19  28.03.2018 18:39:59
211303825,1914,50  28.03.2018 18:19:56
211293824,4414,81  28.03.2018 17:59:54
211283824,1915,06  28.03.2018 17:39:52
211273824,4415,44  28.03.2018 17:19:50
211263826,1916,00  28.03.2018 16:39:40
211253826,3116,19  28.03.2018 16:19:37
211243826,3116,62  28.03.2018 15:59:35
211233826,4416,81  28.03.2018 15:39:33
211223826,1918,00  28.03.2018 15:19:31
211213826,5617,44  28.03.2018 14:59:29
211203826,6218,06  28.03.2018 14:39:27
211193826,5618,12  28.03.2018 14:19:25
211183826,8118,44  28.03.2018 13:59:23
211173826,6919,12  28.03.2018 13:39:21
211163826,6919,19  28.03.2018 13:19:19
211153826,6919,50  28.03.2018 12:59:17
211143826,6221,31  28.03.2018 12:39:15
211133826,7520,06  28.03.2018 12:19:13
211123826,5618,06  28.03.2018 11:59:11
211113826,6918,19  28.03.2018 11:39:09
211103826,7519,37  28.03.2018 11:19:07
211093826,7517,69  28.03.2018 10:59:04
211083826,6916,69  28.03.2018 10:39:02
211073826,7516,00  28.03.2018 10:19:00
211063826,5615,25  28.03.2018 09:58:58
211053826,8114,94  28.03.2018 09:38:56
211043826,6913,75  28.03.2018 09:18:54
211033826,5610,38  28.03.2018 08:58:52
211023826,698,69  28.03.2018 08:38:50
211013826,627,81  28.03.2018 08:18:48
211003826,447,87  28.03.2018 07:58:46
210993826,314,44  28.03.2018 07:38:44
210983826,193,62  28.03.2018 07:18:42
210973826,003,25  28.03.2018 06:58:39
210963826,002,31  28.03.2018 06:38:37
210953826,122,31  28.03.2018 06:18:35
210943826,251,69  28.03.2018 05:58:33
210933826,563,75  28.03.2018 05:38:31
210923826,503,19  28.03.2018 05:18:29
210913826,563,19  28.03.2018 04:58:27
210903826,692,75  28.03.2018 04:38:25
210893826,692,56  28.03.2018 04:18:23
210883826,693,94  28.03.2018 03:58:21
210873826,815,25  28.03.2018 03:38:19
210863826,875,50  28.03.2018 03:18:17
210853827,005,19  28.03.2018 02:58:14
210843827,005,12  28.03.2018 02:38:12
210833827,005,12  28.03.2018 02:18:10
210823827,005,06  28.03.2018 01:58:08
210813827,135,44  28.03.2018 01:38:06
210803827,137,12  28.03.2018 01:18:04
210793827,197,62  28.03.2018 00:58:02
210783827,007,56  28.03.2018 00:37:59
210773827,137,94  28.03.2018 00:17:56
210763827,138,19  27.03.2018 23:57:54
210753827,198,50  27.03.2018 23:37:52
210743827,198,50  27.03.2018 23:17:50
210733827,199,63  27.03.2018 22:57:48
210723827,139,94  27.03.2018 22:37:46
210713827,199,94  27.03.2018 22:17:44
210703827,0610,25  27.03.2018 21:57:42
210693827,1310,13  27.03.2018 21:37:40
210683827,0011,06  27.03.2018 21:17:38
210673827,0610,94  27.03.2018 20:57:36
210663826,8711,56  27.03.2018 20:37:34
210653826,8111,88  27.03.2018 20:17:32
210643826,6912,19  27.03.2018 19:57:30
210633826,6212,50  27.03.2018 19:37:27
210623826,3712,81  27.03.2018 19:17:25
210613826,4413,25  27.03.2018 18:57:23
210603826,6214,87  27.03.2018 18:37:21
210593826,5615,50  27.03.2018 18:17:20
210583826,5616,00  27.03.2018 17:57:18
210573826,8716,62  27.03.2018 17:37:15
210563826,8716,94  27.03.2018 17:17:13
210553827,3117,62  27.03.2018 16:57:11
210543827,7518,75  27.03.2018 16:37:09
210533827,6920,31  27.03.2018 16:17:07
210523827,5620,56  27.03.2018 15:57:05
210513827,5620,81  27.03.2018 15:37:02
210503827,4421,69  27.03.2018 15:17:00
210493827,1921,00  27.03.2018 14:56:57
210483826,8720,56  27.03.2018 14:36:55
210473826,4420,69  27.03.2018 14:16:53
210463826,1218,81  27.03.2018 13:56:50
210453826,2519,62  27.03.2018 13:36:48
210443826,0017,00  27.03.2018 13:16:46
210433826,0619,25  27.03.2018 12:56:44
210423826,0018,75  27.03.2018 12:36:42
210413826,1218,06  27.03.2018 12:16:39
210403826,0616,50  27.03.2018 11:56:37
210393826,0616,25  27.03.2018 11:36:35
210383825,9416,19  27.03.2018 11:16:33
210373825,8115,63  27.03.2018 10:56:31
210363825,7515,56  27.03.2018 10:36:29
210353825,9414,69  27.03.2018 10:16:27
210343826,0013,75  27.03.2018 09:56:24
210333825,8113,38  27.03.2018 09:36:22
210323825,8111,50  27.03.2018 09:16:20
210313825,5611,69  27.03.2018 08:56:18
210303825,3711,44  27.03.2018 08:36:16
210293825,4410,56  27.03.2018 08:16:14
210283825,259,88  27.03.2018 07:56:12
210273825,5010,38  27.03.2018 07:36:10
210263825,448,94  27.03.2018 07:16:08
210253825,508,31  27.03.2018 06:56:05
210243825,448,50  27.03.2018 06:36:03
210233825,627,87  27.03.2018 06:16:01
210223825,629,38  27.03.2018 05:55:59
210213825,699,63  27.03.2018 05:35:57
210203825,759,06  27.03.2018 05:15:55
210193825,758,94  27.03.2018 04:55:53
210183825,819,44  27.03.2018 04:35:51
210173825,759,50  27.03.2018 04:15:49
210163825,759,63  27.03.2018 03:48:30
210153825,819,75  27.03.2018 03:28:26
210143826,199,75  27.03.2018 03:08:22
210133826,069,81  27.03.2018 02:48:17
210123826,129,38  27.03.2018 02:28:15
210113825,949,19  27.03.2018 02:08:13
210103825,949,44  27.03.2018 01:48:11
210093825,889,56  27.03.2018 01:28:09
210083825,759,75  27.03.2018 01:08:07
210073825,9410,06  27.03.2018 00:48:05
210063826,069,88  27.03.2018 00:28:03
210053826,0010,13  27.03.2018 00:08:01
210043825,8810,06  26.03.2018 23:47:58
210033825,629,88  26.03.2018 23:27:56
210023825,8110,06  26.03.2018 23:07:54
210013825,8810,25  26.03.2018 22:47:52
210003826,0010,63  26.03.2018 22:27:50
209993826,0611,25  26.03.2018 22:07:48
209983826,0011,31  26.03.2018 21:47:46
209973825,8810,81  26.03.2018 21:27:44
209963825,949,88  26.03.2018 21:07:42
209953825,9410,75  26.03.2018 20:47:40
209943825,8811,19  26.03.2018 20:27:38
209933825,8111,00  26.03.2018 20:07:36
209923825,5010,75  26.03.2018 19:47:33
209913825,4411,56  26.03.2018 19:27:30
209903825,2511,81  26.03.2018 19:07:28
209893825,0012,44  26.03.2018 18:47:26
209883825,0013,19  26.03.2018 18:27:24
209873824,8113,69  26.03.2018 18:07:22
209863824,9413,94  26.03.2018 17:47:20
209853824,8714,31  26.03.2018 17:27:18
209843824,9414,50  26.03.2018 17:07:16
209833824,8115,13  26.03.2018 16:47:14
209823825,3116,44  26.03.2018 16:27:11
209813825,2516,00  26.03.2018 16:07:09
209803825,3117,06  26.03.2018 15:47:07
209793825,3718,56  26.03.2018 15:27:05
209783825,3118,19  26.03.2018 15:07:03
209773825,2517,00  26.03.2018 14:47:01
209763825,1917,69  26.03.2018 14:26:59
209753825,1219,12  26.03.2018 14:06:57
209743824,7517,94  26.03.2018 13:46:55
209733824,9416,87  26.03.2018 13:26:52
209723825,0016,75  26.03.2018 13:06:50
209713824,8715,38  26.03.2018 12:46:48
209703824,9415,94  26.03.2018 12:26:46
209693825,0015,25  26.03.2018 12:06:44
209683825,0013,50  26.03.2018 11:46:42
209673824,9411,38  26.03.2018 11:26:40
209663825,0012,00  26.03.2018 11:06:38
209653825,0611,12  26.03.2018 10:46:36
209643825,0610,56  26.03.2018 10:26:34
209633825,199,44  26.03.2018 10:06:32
209623825,258,81  26.03.2018 09:46:30
209613825,199,56  26.03.2018 09:26:27
209603825,068,38  26.03.2018 09:06:26
209593825,008,38  26.03.2018 08:46:23
209583824,948,19  26.03.2018 08:26:21
209573824,947,69  26.03.2018 08:06:19
209563824,697,19  26.03.2018 07:46:17
209553824,565,25  26.03.2018 07:26:15
209543824,634,81  26.03.2018 07:06:13
209533824,755,19  26.03.2018 06:46:11
209523824,694,87  26.03.2018 06:06:02
209513824,754,69  26.03.2018 05:46:00
209503824,754,81  26.03.2018 05:25:58
209493824,814,69  26.03.2018 05:05:56
209483824,874,69  26.03.2018 04:45:54
209473824,875,00  26.03.2018 04:25:51
209463824,875,00  26.03.2018 04:05:49
209453825,005,06  26.03.2018 03:45:47
209443825,004,94  26.03.2018 03:25:45
209433825,064,81  26.03.2018 03:05:43
209423825,194,56  26.03.2018 02:45:40
209413825,194,94  26.03.2018 02:25:38
209403825,125,06  26.03.2018 02:05:36
209393825,124,56  26.03.2018 01:45:34
209383825,125,00  26.03.2018 01:25:32
209373825,064,75  26.03.2018 01:05:30
209363825,124,69  26.03.2018 00:45:27
209353825,194,75  26.03.2018 00:25:25
209343825,065,37  26.03.2018 00:05:23
209333825,195,81  25.03.2018 23:45:21
209323825,066,12  25.03.2018 23:25:19
209313825,256,44  25.03.2018 23:05:11
209303825,126,62  25.03.2018 22:45:09
209293825,066,62  25.03.2018 22:25:07
209283825,006,62  25.03.2018 22:05:05
209273824,946,81  25.03.2018 21:45:03
209263824,876,94  25.03.2018 21:25:01
209253824,757,19  25.03.2018 21:04:59
209243824,817,19  25.03.2018 20:44:57
209233824,817,19  25.03.2018 20:24:55
209223824,877,12  25.03.2018 20:04:53
209213825,007,37  25.03.2018 19:44:51
209203824,947,44  25.03.2018 19:24:49
209193824,947,94  25.03.2018 19:04:47
209183824,878,63  25.03.2018 18:44:45
209173824,818,56  25.03.2018 18:24:43
209163824,638,88  25.03.2018 18:04:40
209153824,639,31  25.03.2018 17:44:38
209143824,569,94  25.03.2018 17:24:36
209133824,569,94  25.03.2018 17:04:34
209123824,6910,75  25.03.2018 16:44:32
209113824,6912,13  25.03.2018 16:24:30
209103824,639,94  25.03.2018 16:04:28
209093824,7510,94  25.03.2018 15:44:24
209083825,2515,63  25.03.2018 15:24:22
209073825,0015,06  25.03.2018 15:04:20
209063824,8714,44  25.03.2018 14:44:18
209053824,8714,69  25.03.2018 14:24:16
209043824,6912,31  25.03.2018 14:04:14
209033824,4412,50  25.03.2018 13:44:12
209023824,259,69  25.03.2018 13:24:10
209013824,0613,00  25.03.2018 13:04:07
209003824,5612,06  25.03.2018 12:44:05
208993824,6912,00  25.03.2018 12:24:03
208983824,4410,25  25.03.2018 12:04:01
208973824,819,88  25.03.2018 11:43:59
208963824,819,00  25.03.2018 11:23:57
208953824,759,75  25.03.2018 11:03:55
208943824,818,69  25.03.2018 10:43:53
208933824,758,38  25.03.2018 10:23:51
208923824,947,81  25.03.2018 10:03:49
208913824,878,13  25.03.2018 09:43:47
208903824,816,94  25.03.2018 09:23:45
208893824,756,06  25.03.2018 09:03:43
208883824,754,12  25.03.2018 08:43:41
208873824,754,87  25.03.2018 08:23:39
208863824,813,31  25.03.2018 08:03:37
208853824,693,19  25.03.2018 07:43:35
208843824,561,75  25.03.2018 07:23:32
208833824,501,75  25.03.2018 07:03:30
208823824,250,81  25.03.2018 06:43:28
208813824,251,62  25.03.2018 06:23:26
208803824,441,81  25.03.2018 06:03:24
208793824,501,94  25.03.2018 05:43:22
208783824,501,75  25.03.2018 05:23:20
208773824,692,12  25.03.2018 05:03:18
208763824,751,94  25.03.2018 04:43:16
208753824,811,94  25.03.2018 04:23:14
208743824,751,87  25.03.2018 04:03:12
208733824,872,00  25.03.2018 03:43:10
208723825,061,81  25.03.2018 03:23:08
208713825,251,69  25.03.2018 03:03:06
208703825,311,87  25.03.2018 02:43:04
208693825,371,81  25.03.2018 02:23:01
208683825,372,25  25.03.2018 02:02:58
208673825,502,25  25.03.2018 01:42:56
208663825,622,00  25.03.2018 01:22:54
208653825,752,87  25.03.2018 01:02:52
208643825,692,94  25.03.2018 00:42:50
208633825,692,69  25.03.2018 00:22:48
208623825,622,50  25.03.2018 00:02:46
208613825,692,75  24.03.2018 23:42:44
208603825,622,69  24.03.2018 23:22:41
208593825,622,81  24.03.2018 23:02:39
208583825,692,87  24.03.2018 22:42:37
208573825,562,75  24.03.2018 22:22:34
208563825,753,00  24.03.2018 22:02:32
208553825,623,00  24.03.2018 21:42:30
208543825,693,31  24.03.2018 21:22:28
208533825,813,56  24.03.2018 21:02:26
208523825,813,44  24.03.2018 20:42:24
208513826,063,44  24.03.2018 20:22:22
208503826,193,50  24.03.2018 20:02:20
208493826,193,37  24.03.2018 19:42:18
208483826,062,87  24.03.2018 19:22:16
208473826,122,50  24.03.2018 19:02:14
208463826,192,31  24.03.2018 18:42:12
208453826,192,62  24.03.2018 18:22:10
208443826,062,44  24.03.2018 18:02:08
208433825,812,31  24.03.2018 17:42:06
208423825,622,37  24.03.2018 17:22:04
208413825,883,37  24.03.2018 17:02:02
208403825,947,44  24.03.2018 16:42:00
208393826,0610,25  24.03.2018 16:21:58
208383826,4411,06  24.03.2018 16:01:56
208373826,4413,81  24.03.2018 15:41:53
208363826,6213,56  24.03.2018 15:21:51
208353826,2511,50  24.03.2018 15:01:49
208343826,2510,06  24.03.2018 14:41:47
208333826,1210,06  24.03.2018 14:21:45
208323826,129,69  24.03.2018 14:01:43
208313826,1910,69  24.03.2018 13:41:41
208303825,889,44  24.03.2018 13:21:39
208293826,1910,00  24.03.2018 13:01:37
208283826,3710,19  24.03.2018 12:41:35
208273826,4410,31  24.03.2018 12:21:33
208263826,6213,69  24.03.2018 12:01:30
208253826,6214,13  24.03.2018 11:41:28
208243826,7514,13  24.03.2018 11:21:26
208233826,7514,75  24.03.2018 11:01:24
208223826,6915,81  24.03.2018 10:41:22
208213826,7515,88  24.03.2018 10:21:20
208203826,8115,25  24.03.2018 10:01:18
208193826,7515,50  24.03.2018 09:41:16
208183826,8114,87  24.03.2018 09:21:14
208173826,8114,87  24.03.2018 09:01:12
208163826,7514,25  24.03.2018 08:41:10
208153826,6913,75  24.03.2018 08:21:08
208143826,8713,13  24.03.2018 08:01:06
208133826,6213,25  24.03.2018 07:41:04
208123826,8113,00  24.03.2018 07:21:02
208113826,6912,63  24.03.2018 07:00:59
208103826,6912,56  24.03.2018 06:40:57
208093826,6212,56  24.03.2018 06:20:55
208083826,5013,19  24.03.2018 06:00:53
208073826,7513,44  24.03.2018 05:40:51
208063826,6913,56  24.03.2018 05:20:49
208053826,7514,06  24.03.2018 05:00:47
208043826,7514,63  24.03.2018 04:40:45
208033826,8115,13  24.03.2018 04:20:43
208023826,9414,87  24.03.2018 04:00:41
208013827,0014,56  24.03.2018 03:40:39
208003827,1314,06  24.03.2018 03:20:37
207993827,2513,62  24.03.2018 03:00:34
207983827,1914,25  24.03.2018 02:40:32
207973827,3714,06  24.03.2018 02:20:30
207963827,4414,31  24.03.2018 02:00:28
207953827,5014,06  24.03.2018 01:40:26
207943827,5614,06  24.03.2018 01:20:24
207933827,5614,06  24.03.2018 01:00:22
207923827,5014,31  24.03.2018 00:40:19
207913827,6214,25  24.03.2018 00:20:17
207903827,7514,38  24.03.2018 00:00:15
207893827,6914,13  23.03.2018 23:40:13
207883827,6914,38  23.03.2018 23:20:11
207873827,8114,44  23.03.2018 23:00:09
207863827,5013,94  23.03.2018 22:40:07
207853827,5614,13  23.03.2018 22:20:05
207843827,7514,75  23.03.2018 22:00:03
207833827,4415,13  23.03.2018 21:40:01
207823827,5014,94  23.03.2018 21:19:59
207813827,5013,50  23.03.2018 20:59:57
207803827,5013,69  23.03.2018 20:39:55
207793827,5013,56  23.03.2018 20:19:52
207783827,6213,69  23.03.2018 19:59:50
207773827,5013,75  23.03.2018 19:39:48
207763827,3113,94  23.03.2018 19:19:46
207753827,1314,31  23.03.2018 18:59:44
207743827,1314,87  23.03.2018 18:39:42
207733826,8115,38  23.03.2018 18:19:40
207723826,7516,12  23.03.2018 17:59:38
207713826,8116,75  23.03.2018 17:39:36
207703826,7516,94  23.03.2018 17:19:34
207693826,7517,06  23.03.2018 16:59:32
207683826,6917,56  23.03.2018 16:39:30
207673826,8117,87  23.03.2018 16:19:27
207663826,8718,69  23.03.2018 15:59:25
207653826,8718,81  23.03.2018 15:39:23
207643826,8118,62  23.03.2018 15:19:21
207633826,8718,62  23.03.2018 14:59:19
207623826,8718,44  23.03.2018 14:39:17
207613826,8718,94  23.03.2018 14:19:16
207603826,8120,12  23.03.2018 13:59:14
207593826,8721,12  23.03.2018 13:39:12
207583826,7519,50  23.03.2018 13:19:10
207573826,8120,37  23.03.2018 12:59:07
207563826,6919,50  23.03.2018 12:39:05
207553826,6918,87  23.03.2018 12:19:03
207543826,7519,31  23.03.2018 11:59:01
207533826,6218,62  23.03.2018 11:38:59
207523826,6219,06  23.03.2018 11:18:57
207513826,6918,69  23.03.2018 10:58:55
207503826,6919,00  23.03.2018 10:38:53
207493826,5018,69  23.03.2018 10:18:51
207483826,6918,62  23.03.2018 09:58:49
207473826,6918,06  23.03.2018 09:38:47
207463826,5617,25  23.03.2018 09:18:45
207453826,5016,62  23.03.2018 08:58:42
207443826,3716,12  23.03.2018 08:38:40
207433826,2515,25  23.03.2018 08:18:38
207423826,1214,13  23.03.2018 07:58:36
207413826,0614,50  23.03.2018 07:38:34
207403826,2512,25  23.03.2018 07:18:32
207393826,3112,06  23.03.2018 06:58:30
207383826,3710,94  23.03.2018 06:38:28
207373826,5010,75  23.03.2018 06:18:26
207363826,4411,31  23.03.2018 05:58:24
207353826,4410,69  23.03.2018 05:38:22
207343826,5010,75  23.03.2018 05:18:20
207333826,5010,63  23.03.2018 04:58:18
207323826,6211,44  23.03.2018 04:38:16
207313826,5612,00  23.03.2018 04:18:14
207303826,5611,19  23.03.2018 03:58:12
207293826,5612,50  23.03.2018 03:38:10
207283826,5612,31  23.03.2018 03:18:08
207273826,5611,50  23.03.2018 02:58:05
207263826,6211,06  23.03.2018 02:38:03
207253826,5611,12  23.03.2018 02:18:01
207243826,5010,81  23.03.2018 01:57:59
207233826,7511,12  23.03.2018 01:37:57
207223826,6911,44  23.03.2018 01:17:55
207213826,7510,75  23.03.2018 00:57:53
207203826,5611,00  23.03.2018 00:37:51
207193826,5010,56  23.03.2018 00:17:49
207183826,5010,69  22.03.2018 23:57:47
207173826,4411,31  22.03.2018 23:37:45
207163826,5011,69  22.03.2018 23:17:43
207153826,5012,06  22.03.2018 22:57:40
207143826,4411,88  22.03.2018 22:37:38
207133826,3112,63  22.03.2018 22:17:36
207123826,3711,69  22.03.2018 21:57:34
207113826,2511,75  22.03.2018 21:37:32
207103826,1212,00  22.03.2018 21:17:30
207093826,1212,50  22.03.2018 20:57:28
207083826,0612,75  22.03.2018 20:37:26
207073826,0012,63  22.03.2018 20:17:24
207063826,0013,06  22.03.2018 19:57:22
207053826,1213,06  22.03.2018 19:37:20
207043826,1913,19  22.03.2018 19:17:18
207033825,9413,13  22.03.2018 18:57:16
207023825,8813,75  22.03.2018 18:37:14
207013825,6914,44  22.03.2018 18:17:12
207003825,5615,31  22.03.2018 17:57:10
206993825,5015,88  22.03.2018 17:37:07
206983825,6216,31  22.03.2018 17:17:05
206973825,7516,87  22.03.2018 16:57:03
206963825,7517,25  22.03.2018 16:37:01
206953825,7519,50  22.03.2018 16:16:59
206943825,8120,94  22.03.2018 15:56:57
206933825,6218,69  22.03.2018 15:36:55
206923825,6217,06  22.03.2018 15:16:53
206913825,8117,50  22.03.2018 14:56:51
206903825,8116,69  22.03.2018 14:36:49
206893825,6916,56  22.03.2018 14:16:47
206883825,5613,81  22.03.2018 13:56:45
206873825,5013,38  22.03.2018 13:36:43
206863825,4412,69  22.03.2018 13:16:40
206853825,5612,13  22.03.2018 12:56:38
206843825,6912,13  22.03.2018 12:36:36
206833825,7512,06  22.03.2018 12:16:34
206823825,6212,19  22.03.2018 11:56:32
206813825,6211,25  22.03.2018 11:36:30
206803825,6211,31  22.03.2018 11:16:28
206793825,9411,94  22.03.2018 10:56:26
206783825,8811,94  22.03.2018 10:36:24
206773825,9412,25  22.03.2018 10:16:22
206763825,9411,06  22.03.2018 09:56:20
206753826,129,56  22.03.2018 09:36:18
206743825,947,25  22.03.2018 09:16:16
206733825,816,00  22.03.2018 08:56:14
206723825,694,50  22.03.2018 08:36:12
206713825,693,19  22.03.2018 08:16:10
206703825,372,12  22.03.2018 07:56:08
206693825,001,19  22.03.2018 07:36:05
206683825,190,37  22.03.2018 07:16:03
206673825,19-0,13  22.03.2018 06:56:01
206663825,310,94  22.03.2018 06:35:59
206653825,370,13  22.03.2018 06:15:57
206643825,500,44  22.03.2018 05:55:55
206633825,561,81  22.03.2018 05:35:53
206623825,620,37  22.03.2018 05:15:51
206613825,752,25  22.03.2018 04:55:49
206603825,882,81  22.03.2018 04:35:47
206593825,942,00  22.03.2018 04:15:45
206583826,001,25  22.03.2018 03:55:43
206573826,193,50  22.03.2018 03:35:41
206563826,312,56  22.03.2018 03:15:39
206553826,562,62  22.03.2018 02:55:37
206543826,313,62  22.03.2018 02:35:35
206533826,445,44  22.03.2018 02:15:33
206523826,375,12  22.03.2018 01:55:31
206513826,694,56  22.03.2018 01:35:29
206503826,505,62  22.03.2018 01:15:26
206493826,695,31  22.03.2018 00:55:24
206483826,815,50  22.03.2018 00:35:22
206473826,876,75  22.03.2018 00:15:20
206463826,946,87  21.03.2018 23:55:18
206453827,137,56  21.03.2018 23:35:16
206443826,877,81  21.03.2018 23:15:14
206433827,137,69  21.03.2018 22:55:12
206423827,008,38  21.03.2018 22:35:08
206413827,069,00  21.03.2018 22:15:06
206403827,138,88  21.03.2018 21:55:03
206393827,199,06  21.03.2018 21:35:01
206383827,259,25  21.03.2018 21:15:00
206373827,319,13  21.03.2018 20:54:58
206363827,3110,06  21.03.2018 20:34:56
206353827,2510,69  21.03.2018 20:14:54
206343827,1911,25  21.03.2018 19:54:52
206333827,0611,25  21.03.2018 19:34:50
206323827,0611,63  21.03.2018 19:14:48
206313826,8712,25  21.03.2018 18:54:45
206303826,6913,62  21.03.2018 18:34:43
206293824,0614,63  21.03.2018 17:54:35
206283824,9412,69  20.03.2018 07:57:32
206273824,7511,88  20.03.2018 07:37:30
206263824,7511,06  20.03.2018 07:17:28
206253824,6911,00  20.03.2018 06:57:26
206243824,7511,19  20.03.2018 06:37:24
206233824,7510,75  20.03.2018 06:17:22
206223824,8111,19  20.03.2018 05:57:19
206213824,9411,38  20.03.2018 05:37:17
206203825,0011,69  20.03.2018 05:17:15
206193825,0011,81  20.03.2018 04:57:13
206183825,1211,88  20.03.2018 04:37:11
206173825,2511,31  20.03.2018 04:17:09
206163825,6911,56  20.03.2018 03:57:06
206153825,2510,50  20.03.2018 03:37:05
206143825,3110,38  20.03.2018 03:17:02
206133825,3711,75  20.03.2018 02:57:00
206123825,5011,88  20.03.2018 02:36:58
206113825,5012,06  20.03.2018 02:16:56
206103825,5612,25  20.03.2018 01:56:54
206093825,6212,56  20.03.2018 01:36:52
206083825,7512,31  20.03.2018 01:16:50
206073826,0012,50  20.03.2018 00:56:48
206063826,1212,44  20.03.2018 00:36:46
206053826,1212,31  20.03.2018 00:16:44
206043826,0612,81  19.03.2018 23:56:42
206033826,1212,88  19.03.2018 23:36:40
206023826,2512,94  19.03.2018 23:16:38
206013826,2512,44  19.03.2018 22:56:36
206003826,0012,56  19.03.2018 22:36:33
205993825,8112,31  19.03.2018 22:16:31
205983825,6912,25  19.03.2018 21:56:29
205973825,5012,75  19.03.2018 21:36:27
205963825,3712,69  19.03.2018 21:16:25
205953825,1212,69  19.03.2018 20:56:23
205943823,3812,69  19.03.2018 20:36:21
205933823,0012,75  19.03.2018 20:34:32
205923823,1913,31  19.03.2018 09:05:17
205913823,1212,37  19.03.2018 08:45:15
205903823,1210,88  19.03.2018 08:25:13
205893823,069,63  19.03.2018 08:05:11
205883823,008,75  19.03.2018 07:45:09
205873823,068,06  19.03.2018 07:25:07
205863823,198,00  19.03.2018 07:05:05
205853823,257,12  19.03.2018 06:45:03
205843823,317,50  19.03.2018 06:25:01
205833823,258,94  19.03.2018 06:04:59
205823823,258,69  19.03.2018 05:44:57
205813823,318,50  19.03.2018 05:24:55
205803823,319,00  19.03.2018 05:04:53
205793823,319,25  19.03.2018 04:44:51
205783823,318,31  19.03.2018 04:24:49
205773823,318,63  19.03.2018 04:04:46
205763823,388,94  19.03.2018 03:44:44
205753823,389,13  19.03.2018 03:24:42
205743823,3810,38  19.03.2018 03:04:40
205733823,3810,44  19.03.2018 02:44:38
205723823,3810,44  19.03.2018 02:24:36
205713823,3110,75  19.03.2018 02:04:34
205703823,3110,63  19.03.2018 01:44:32
205693823,3110,94  19.03.2018 01:24:30
205683823,2511,06  19.03.2018 01:04:28
205673823,3110,69  19.03.2018 00:44:26
205663823,3111,31  19.03.2018 00:24:24
205653823,3111,19  19.03.2018 00:04:21
205643823,3111,81  18.03.2018 23:44:19
205633823,3111,88  18.03.2018 23:24:17
205623823,3112,19  18.03.2018 23:04:15
205613823,2512,63  18.03.2018 22:44:13
205603823,2512,37  18.03.2018 22:24:11
205593823,2512,63  18.03.2018 22:04:09
205583823,3112,81  18.03.2018 21:44:00
205573823,2513,06  18.03.2018 21:23:48
205563823,2513,31  18.03.2018 21:03:43
205553823,2513,00  18.03.2018 20:43:35
205543823,2513,44  18.03.2018 20:23:30
205533823,1213,62  18.03.2018 20:03:28
205523823,1913,44  18.03.2018 19:43:26
205513823,1213,56  18.03.2018 19:23:24
205503823,0613,69  18.03.2018 19:03:22
205493822,8713,75  18.03.2018 18:43:20
205483822,8113,69  18.03.2018 18:23:18
205473822,6914,31  18.03.2018 18:03:16
205463822,5614,87  18.03.2018 17:43:14
205453822,5015,25  18.03.2018 17:23:12
205443822,4415,69  18.03.2018 17:03:10
205433822,3116,12  18.03.2018 16:43:08
205423822,2516,87  18.03.2018 16:23:06
205413822,1917,12  18.03.2018 16:03:04
205403822,1918,12  18.03.2018 15:43:02
205393822,1319,25  18.03.2018 15:23:00
205383822,1321,50  18.03.2018 15:02:57
205373822,0023,31  18.03.2018 14:42:55
205363821,8122,75  18.03.2018 14:22:53
205353821,6921,87  18.03.2018 14:02:51
205343821,5021,69  18.03.2018 13:42:49
205333821,4420,88  18.03.2018 13:22:47
205323821,3720,00  18.03.2018 13:02:45
205313821,3720,88  18.03.2018 12:42:43
205303821,3119,81  18.03.2018 12:22:37
205293821,2520,12  18.03.2018 12:02:35
205283821,1916,75  18.03.2018 11:42:33
205273821,0616,56  18.03.2018 11:22:31
205263820,9415,38  18.03.2018 11:02:29
205253820,9413,44  18.03.2018 10:42:27
205243821,0611,94  18.03.2018 10:22:25
205233820,9410,44  18.03.2018 10:02:23
205223820,759,69  18.03.2018 09:42:21
205213821,067,19  18.03.2018 09:22:19
205203820,887,50  18.03.2018 09:02:17
205193820,695,37  18.03.2018 08:42:14
205183820,944,12  18.03.2018 08:22:12
205173820,942,44  18.03.2018 08:02:10
205163821,061,69  18.03.2018 07:42:08
205153821,251,00  18.03.2018 07:22:06
205143821,441,00  18.03.2018 07:02:04
205133821,37-0,19  18.03.2018 06:42:02
205123821,690,00  18.03.2018 06:22:00
205113821,691,50  18.03.2018 06:01:58
205103821,810,25  18.03.2018 05:41:56
205093821,50-0,50  18.03.2018 05:21:54
205083821,56-0,06  18.03.2018 05:01:52
205073821,560,31  18.03.2018 04:41:50
205063821,250,69  18.03.2018 04:21:48
205053820,810,37  18.03.2018 04:01:45
205043821,001,06  18.03.2018 03:41:43
205033821,191,50  18.03.2018 03:21:41
205023821,311,50  18.03.2018 03:01:39
205013821,442,56  18.03.2018 02:41:37
205003821,502,50  18.03.2018 02:21:35
204993821,562,31  18.03.2018 02:01:33
204983821,752,25  18.03.2018 01:41:31
204973822,062,44  18.03.2018 01:21:29
204963822,192,94  18.03.2018 01:01:27
204953822,312,44  18.03.2018 00:41:25
204943822,443,37  18.03.2018 00:21:23
204933822,443,44  18.03.2018 00:01:21
204923822,064,69  17.03.2018 23:41:19
204913821,944,31  17.03.2018 23:21:17
204903821,754,94  17.03.2018 23:01:15
204893821,564,31  17.03.2018 22:41:13
204883821,625,44  17.03.2018 22:21:11
204873821,696,31  17.03.2018 22:01:08
204863821,626,56  17.03.2018 21:41:06
204853821,566,44  17.03.2018 21:21:04
204843821,626,56  17.03.2018 21:01:02
204833821,697,25  17.03.2018 20:41:00
204823821,758,00  17.03.2018 20:20:58
204813821,818,25  17.03.2018 20:00:56
204803821,698,44  17.03.2018 19:40:54
204793821,758,81  17.03.2018 19:20:51
204783821,629,06  17.03.2018 19:00:48
204773821,699,38  17.03.2018 18:40:46
204763821,819,69  17.03.2018 18:20:44
204753821,949,94  17.03.2018 18:00:42
204743821,8710,56  17.03.2018 17:40:40
204733821,9410,50  17.03.2018 17:20:38
204723821,8710,88  17.03.2018 17:00:36
204713821,8711,00  17.03.2018 16:40:34
204703821,6912,06  17.03.2018 16:20:32
204693821,6213,38  17.03.2018 16:00:30
204683821,3712,25  17.03.2018 15:40:28
204673821,6215,19  17.03.2018 15:20:26
204663821,5615,00  17.03.2018 15:00:24
204653821,6215,69  17.03.2018 14:40:22
204643821,5614,44  17.03.2018 14:20:20
204633821,3713,69  17.03.2018 14:00:18
204623821,3715,44  17.03.2018 13:40:16
204613821,3114,19  17.03.2018 13:20:14
204603821,2512,63  17.03.2018 13:00:12
204593821,2512,63  17.03.2018 12:40:10
204583821,1912,69  17.03.2018 12:20:07
204573821,129,13  17.03.2018 12:00:05
204563821,009,25  17.03.2018 11:40:03
204553820,947,50  17.03.2018 11:20:01
204543820,947,25  17.03.2018 10:59:59
204533821,006,81  17.03.2018 10:39:57
204523821,196,31  17.03.2018 10:19:55
204513821,445,62  17.03.2018 09:59:53
204503821,445,37  17.03.2018 09:39:51
204493821,065,00  17.03.2018 09:19:49
204483820,753,44  17.03.2018 08:59:47
204473820,502,56  17.03.2018 08:39:45
204463820,191,75  17.03.2018 08:19:43
204453820,121,94  17.03.2018 07:59:41
204443820,251,19  17.03.2018 07:39:39
204433820,190,81  17.03.2018 07:19:37
204423820,440,00  17.03.2018 06:59:35
204413820,370,00  17.03.2018 06:39:33
204403820,44-0,06  17.03.2018 06:19:31
204393820,56-0,25  17.03.2018 05:59:28
204383820,750,25  17.03.2018 05:39:26
204373820,811,44  17.03.2018 05:19:24
204363820,691,31  17.03.2018 04:59:22
204353820,621,31  17.03.2018 04:39:16
204343820,501,25  17.03.2018 04:19:08
204333820,371,06  17.03.2018 03:58:57
204323820,370,69  17.03.2018 03:38:55
204313820,311,12  17.03.2018 03:18:53
204303820,441,06  17.03.2018 02:58:51
204293820,561,19  17.03.2018 02:38:49
204283820,691,00  17.03.2018 02:18:47
204273820,811,06  17.03.2018 01:58:45
204263821,121,00  17.03.2018 01:38:43
204253821,121,12  17.03.2018 01:18:41
204243821,191,31  17.03.2018 00:58:38
204233821,371,19  17.03.2018 00:38:36
204223821,441,56  17.03.2018 00:18:34
204213821,691,56  16.03.2018 23:58:32
204203821,561,87  16.03.2018 23:38:30
204193821,562,19  16.03.2018 23:18:28
204183821,502,87  16.03.2018 22:58:26
204173821,562,25  16.03.2018 22:38:24
204163821,752,19  16.03.2018 22:18:22
204153821,812,31  16.03.2018 21:58:20
204143821,502,56  16.03.2018 21:38:15
204133821,502,87  16.03.2018 21:18:13
204123821,692,81  16.03.2018 20:58:11
204113821,562,94  16.03.2018 20:38:09
204103821,623,12  16.03.2018 20:18:07
204093821,503,19  16.03.2018 19:58:05
204083821,943,25  16.03.2018 19:38:03
204073822,372,87  16.03.2018 19:18:01
204063822,193,44  16.03.2018 18:57:59
204053822,133,56  16.03.2018 18:37:56
204043822,254,00  16.03.2018 18:17:54
204033822,374,06  16.03.2018 17:57:51
204023822,064,06  16.03.2018 17:37:49
204013821,813,94  16.03.2018 17:17:47
204003821,944,00  16.03.2018 16:57:45
203993823,064,75  16.03.2018 16:37:43
203983823,568,19  16.03.2018 16:17:41
203973823,696,31  16.03.2018 15:57:39
203963823,444,87  16.03.2018 15:37:37
203953822,946,19  16.03.2018 15:17:35
203943821,624,25  16.03.2018 14:57:33
203933820,314,12  16.03.2018 14:37:31
203923820,446,06  16.03.2018 14:17:29
203913820,565,25  16.03.2018 13:57:27
203903820,817,56  16.03.2018 13:37:25
203893820,504,37  16.03.2018 13:17:23
203883820,885,12  16.03.2018 12:57:21
203873820,945,81  16.03.2018 12:37:19
203863821,874,25  16.03.2018 12:17:17
203853821,694,44  16.03.2018 11:57:14
203843822,505,31  16.03.2018 11:37:12
203833823,625,56  16.03.2018 11:17:10
203823823,383,94  16.03.2018 10:57:08
203813823,253,25  16.03.2018 10:37:06
203803822,752,25  16.03.2018 10:17:04
203793823,002,12  16.03.2018 09:57:02
203783823,382,19  16.03.2018 09:37:00
203773823,192,06  16.03.2018 09:16:58
203763823,121,69  16.03.2018 08:56:56
203753823,001,19  16.03.2018 08:36:54
203743822,751,19  16.03.2018 08:16:52
203733822,691,25  16.03.2018 07:56:50
203723822,690,88  16.03.2018 07:36:48
203713822,561,12  16.03.2018 07:16:46
203703822,000,94  16.03.2018 06:56:44
203693821,810,75  16.03.2018 06:36:42
203683821,810,69  16.03.2018 06:16:39
203673821,810,88  16.03.2018 05:56:37
203663821,940,75  16.03.2018 05:36:35
203653822,000,88  16.03.2018 05:16:33
203643822,310,75  16.03.2018 04:56:31
203633822,500,75  16.03.2018 04:36:29
203623822,560,81  16.03.2018 04:16:27
203613822,690,81  16.03.2018 03:56:25
203603822,870,88  16.03.2018 03:36:23
203593822,870,94  16.03.2018 03:16:21
203583822,940,50  16.03.2018 02:56:19
203573823,060,13  16.03.2018 02:36:17
203563823,190,50  16.03.2018 02:16:15
203553823,501,81  16.03.2018 01:56:13
203543823,752,56  16.03.2018 01:36:11
203533823,622,81  16.03.2018 01:16:09
203523823,693,19  16.03.2018 00:56:06
203513823,503,12  16.03.2018 00:36:04
203503823,383,12  16.03.2018 00:16:02
203493823,062,87  15.03.2018 23:56:00
203483823,312,87  15.03.2018 23:35:50
203473823,622,56  15.03.2018 23:15:42
203463823,622,87  15.03.2018 22:55:35
203453821,693,25  15.03.2018 22:35:33
203443823,126,00  15.03.2018 00:12:11
203433823,815,75  14.03.2018 23:52:09
203423824,755,81  14.03.2018 23:32:01
203413824,815,87  14.03.2018 23:11:54
203403824,696,06  14.03.2018 22:51:52
203393824,566,19  14.03.2018 22:31:50
203383824,006,00  14.03.2018 22:11:48
203373824,946,19  14.03.2018 21:51:46
203363824,636,31  14.03.2018 21:31:44
203353825,066,69  14.03.2018 21:11:42
203343824,875,94  14.03.2018 20:51:40
203333824,875,69  14.03.2018 20:31:38
203323824,875,94  14.03.2018 20:11:36
203313824,876,00  14.03.2018 19:51:34
203303824,876,75  14.03.2018 19:31:32
203293824,816,44  14.03.2018 19:11:30
203283824,816,31  14.03.2018 18:51:28
203273824,876,44  14.03.2018 18:31:26
203263824,816,69  14.03.2018 18:11:23
203253824,697,00  14.03.2018 17:51:22
203243824,639,56  14.03.2018 17:31:19
203233824,319,94  14.03.2018 17:11:17
203223824,7510,56  14.03.2018 16:51:15
203213824,8710,88  14.03.2018 16:31:13
203203824,9410,94  14.03.2018 16:11:11
203193824,9410,56  14.03.2018 15:51:09
203183825,0016,06  14.03.2018 15:31:07
203173824,8716,81  14.03.2018 15:11:05
203163824,7513,00  14.03.2018 14:51:03
203153824,8112,50  14.03.2018 14:31:01
203143824,7515,25  14.03.2018 14:10:59
203133824,6910,81  14.03.2018 13:50:57
203123824,6911,38  14.03.2018 13:30:55
203113824,8113,38  14.03.2018 13:10:52
203103824,8115,44  14.03.2018 12:50:50
203093824,7512,81  14.03.2018 12:30:48
203083824,7511,81  14.03.2018 12:10:46
203073824,7510,75  14.03.2018 11:50:44
203063824,819,50  14.03.2018 11:30:42
203053824,7511,31  14.03.2018 11:10:40
203043824,638,13  14.03.2018 10:50:38
203033824,637,81  14.03.2018 10:30:36
203023824,567,87  14.03.2018 10:10:34
203013824,567,94  14.03.2018 09:50:32
203003824,566,62  14.03.2018 09:30:30
202993824,566,25  14.03.2018 09:10:28
202983824,506,62  14.03.2018 08:50:26
202973824,445,81  14.03.2018 08:30:24
202963824,445,12  14.03.2018 08:10:22
202953824,374,87  14.03.2018 07:50:20
202943824,194,06  14.03.2018 07:30:18
202933823,754,44  14.03.2018 07:10:16
202923823,624,31  14.03.2018 06:50:14
202913823,753,75  14.03.2018 06:30:12
202903823,814,00  14.03.2018 06:10:10
202893823,944,12  14.03.2018 05:50:07
202883824,063,69  14.03.2018 05:30:05
202873823,944,25  14.03.2018 05:10:03
202863823,814,81  14.03.2018 04:50:01
202853823,814,25  14.03.2018 04:29:59
202843824,005,25  14.03.2018 04:09:57
202833823,945,19  14.03.2018 03:49:55
202823824,254,87  14.03.2018 03:29:53
202813824,564,81  14.03.2018 03:09:51
202803824,815,44  14.03.2018 02:49:49
202793824,945,75  14.03.2018 02:29:47
202783825,006,12  14.03.2018 02:09:45
202773825,066,31  14.03.2018 01:49:43
202763825,066,44  14.03.2018 01:29:41
202753824,947,12  14.03.2018 01:09:39
202743825,006,87  14.03.2018 00:49:36
202733825,007,37  14.03.2018 00:29:34
202723824,947,19  14.03.2018 00:09:32
202713824,757,69  13.03.2018 23:49:30
202703824,878,25  13.03.2018 23:29:28
202693824,877,75  13.03.2018 23:09:26
202683824,877,81  13.03.2018 22:49:24
202673825,008,75  13.03.2018 22:29:22
202663825,008,44  13.03.2018 22:09:20
202653824,948,31  13.03.2018 21:49:18
202643824,948,69  13.03.2018 21:29:16
202633824,878,69  13.03.2018 21:09:14
202623824,818,31  13.03.2018 20:49:12
202613824,879,06  13.03.2018 20:29:10
202603824,949,13  13.03.2018 20:09:07
202593824,948,81  13.03.2018 19:49:05
202583824,879,25  13.03.2018 19:29:03
202573824,879,38  13.03.2018 19:09:01
202563824,819,56  13.03.2018 18:48:59
202553824,8710,75  13.03.2018 18:28:57
202543824,8711,31  13.03.2018 18:08:55
202533824,7511,44  13.03.2018 17:48:53
202523824,6911,81  13.03.2018 17:28:51
202513824,5612,94  13.03.2018 17:08:49
202503824,6313,56  13.03.2018 16:48:47
202493824,7514,63  13.03.2018 16:28:45
202483824,8118,69  13.03.2018 16:08:43
202473824,7521,62  13.03.2018 15:48:41
202463824,6320,50  13.03.2018 15:28:39
202453824,5621,75  13.03.2018 15:08:37
202443824,4420,50  13.03.2018 14:48:35
202433824,3117,94  13.03.2018 14:28:33
202423824,3118,94  13.03.2018 14:08:31
202413824,2518,81  13.03.2018 13:48:29
202403824,1918,44  13.03.2018 13:28:26
202393824,1215,06  13.03.2018 13:08:24
202383824,1916,50  13.03.2018 12:48:22
202373824,1912,94  13.03.2018 12:28:20
202363824,1914,31  13.03.2018 12:08:18
202353824,1911,81  13.03.2018 11:48:16
202343824,1211,69  13.03.2018 11:28:14
202333824,1212,25  13.03.2018 11:08:12
202323824,0011,00  13.03.2018 10:48:10
202313823,8111,06  13.03.2018 10:28:08
202303824,009,88  13.03.2018 10:08:06
202293823,948,69  13.03.2018 09:48:04
202283824,008,75  13.03.2018 09:28:02
202273823,946,56  13.03.2018 09:08:00
202263823,875,44  13.03.2018 08:47:58
202253823,753,69  13.03.2018 08:27:56
202243823,382,62  13.03.2018 08:07:54
202233822,941,25  13.03.2018 07:47:52
202223823,000,37  13.03.2018 07:27:50
202213822,94-1,19  13.03.2018 07:07:47
202203823,19-1,50  13.03.2018 06:47:45
202193823,25-0,56  13.03.2018 06:27:43
202183823,31-0,56  13.03.2018 06:07:41
202173823,50-1,06  13.03.2018 05:47:39
202163823,12-0,13  13.03.2018 05:27:37
202153822,810,31  13.03.2018 05:07:35
202143822,69-0,19  13.03.2018 04:47:33
202133822,691,37  13.03.2018 04:27:31
202123822,811,56  13.03.2018 04:07:29
202113822,690,75  13.03.2018 03:47:27
202103822,750,25  13.03.2018 03:27:25
202093822,811,44  13.03.2018 03:07:23
202083822,811,19  13.03.2018 02:47:21
202073823,191,81  13.03.2018 02:27:19
202063823,251,75  13.03.2018 02:07:17
202053822,811,75  13.03.2018 01:47:08
202043822,942,62  13.03.2018 01:26:56
202033823,002,37  13.03.2018 01:06:47
202023823,501,37  13.03.2018 00:46:39
202013824,253,81  13.03.2018 00:26:26
202003823,563,37  13.03.2018 00:06:18
201993823,693,62  12.03.2018 23:46:16
201983823,753,50  12.03.2018 23:26:14
201973823,944,44  12.03.2018 23:06:12
201963823,814,50  12.03.2018 22:46:10
201953823,874,56  12.03.2018 22:26:08
201943823,755,25  12.03.2018 22:06:06
201933823,945,25  12.03.2018 21:45:58
201923824,065,25  12.03.2018 21:25:47
201913824,005,25  12.03.2018 21:05:44
201903824,126,19  12.03.2018 20:45:42
201893824,066,81  12.03.2018 20:25:39
201883824,197,69  12.03.2018 20:05:37
201873823,878,25  12.03.2018 19:45:32
201863823,948,50  12.03.2018 19:25:22
201853823,949,56  12.03.2018 19:05:20
201843823,9410,94  12.03.2018 18:45:18
201833823,8711,69  12.03.2018 18:25:16
201823823,7512,19  12.03.2018 18:05:13
201813823,6212,56  12.03.2018 17:45:11
201803823,5613,13  12.03.2018 17:25:09
201793823,5013,25  12.03.2018 17:05:07
201783823,6213,81  12.03.2018 16:45:04
201773823,8714,63  12.03.2018 16:25:02
201763823,5620,31  12.03.2018 16:05:00
201753823,5015,88  12.03.2018 15:44:58
201743823,3114,13  12.03.2018 15:24:56
201733823,1918,31  12.03.2018 15:04:54
201723823,0613,13  12.03.2018 14:44:52
201713823,5620,25  12.03.2018 14:24:50
201703823,3814,81  12.03.2018 14:04:48
201693823,3115,56  12.03.2018 13:44:46
201683823,2515,19  12.03.2018 13:24:44
201673822,9413,62  12.03.2018 13:04:42
201663823,2513,38  12.03.2018 12:44:40
201653823,3814,06  12.03.2018 12:24:38
201643823,5013,31  12.03.2018 12:04:35
201633823,5011,00  12.03.2018 11:44:33
201623823,5610,94  12.03.2018 11:24:31
201613823,5610,69  12.03.2018 11:04:28
201603823,389,50  12.03.2018 10:44:26
201593823,449,44  12.03.2018 10:24:24
201583823,449,06  12.03.2018 10:04:22
201573823,448,19  12.03.2018 09:44:20
201563823,507,00  12.03.2018 09:24:18
201553823,387,25  12.03.2018 09:04:16
201543823,255,31  12.03.2018 08:44:14
201533823,193,00  12.03.2018 08:24:12
201523823,121,87  12.03.2018 08:04:10
201513822,942,12  12.03.2018 07:44:08
201503822,561,75  12.03.2018 07:24:06
201493821,500,75  12.03.2018 07:04:04
201483821,69-0,06  12.03.2018 06:44:02
201473821,69-0,44  12.03.2018 06:24:00
201463822,130,81  12.03.2018 06:03:58
201453822,371,69  12.03.2018 05:43:56
201443822,501,37  12.03.2018 05:23:54
201433822,621,00  12.03.2018 05:03:52
201423822,871,19  12.03.2018 04:43:50
201413822,621,50  12.03.2018 04:23:48
201403822,561,62  12.03.2018 04:03:46
201393822,251,94  12.03.2018 03:43:44
201383822,622,19  12.03.2018 03:23:42
201373823,003,81  12.03.2018 03:03:40
201363823,124,00  12.03.2018 02:43:38
201353823,253,75  12.03.2018 02:23:36
201343823,385,19  12.03.2018 02:03:34
201333823,564,87  12.03.2018 01:43:32
201323823,565,12  12.03.2018 01:23:20
201313823,565,50  12.03.2018 01:03:13
201303823,505,37  12.03.2018 00:22:53
201293823,565,44  12.03.2018 00:02:46
201283823,565,94  11.03.2018 23:42:38
201273823,506,00  11.03.2018 23:22:27
201263823,506,25  11.03.2018 23:02:18
201253823,446,44  11.03.2018 22:42:10
201243823,316,56  11.03.2018 22:21:58
201233823,256,56  11.03.2018 22:01:47
201223823,196,87  11.03.2018 21:41:45
201213822,947,19  11.03.2018 21:21:43
201203822,947,25  11.03.2018 21:01:41
201193822,697,81  11.03.2018 20:41:39
201183821,877,81  11.03.2018 20:21:37
201173820,818,69  11.03.2018 20:01:35
201163820,817,81  11.03.2018 19:41:33
201153820,258,44  11.03.2018 19:21:30
201143819,198,81  11.03.2018 19:01:28
201133819,879,06  11.03.2018 18:41:26
201123819,949,63  11.03.2018 18:21:21
201113819,8710,38  11.03.2018 18:01:13
201103821,8111,25  11.03.2018 17:41:08
201093820,4411,50  11.03.2018 17:21:01
201083821,5011,88  11.03.2018 17:00:56
201073822,1911,75  11.03.2018 16:40:51
201063823,8713,25  11.03.2018 16:20:46
201053823,6918,37  11.03.2018 16:00:44
201043824,1917,75  11.03.2018 15:40:42
201033823,9415,25  11.03.2018 15:20:40
201023823,8113,25  11.03.2018 15:00:37
201013823,8112,56  11.03.2018 14:40:35
201003823,7513,00  11.03.2018 14:20:33
200993823,6912,81  11.03.2018 14:00:31
200983823,7512,37  11.03.2018 13:40:29
200973823,6211,44  11.03.2018 13:20:27
200963823,6211,75  11.03.2018 13:00:25
200953823,5611,00  11.03.2018 12:40:23
200943823,4411,12  11.03.2018 12:20:21
200933823,449,88  11.03.2018 12:00:18
200923823,449,00  11.03.2018 11:40:16
200913823,449,44  11.03.2018 11:20:14
200903823,318,25  11.03.2018 11:00:12
200893823,197,94  11.03.2018 10:40:10
200883823,197,75  11.03.2018 10:20:08
200873823,257,31  11.03.2018 10:00:06
200863823,126,44  11.03.2018 09:39:59
200853823,194,94  11.03.2018 09:19:54
200843823,194,94  11.03.2018 09:19:38
200833823,195,06  11.03.2018 09:19:21
200823823,195,06  11.03.2018 09:19:05
200813823,195,00  11.03.2018 09:18:49
200803823,194,87  11.03.2018 09:18:32
200793823,124,81  11.03.2018 09:18:16
200783823,124,81  11.03.2018 09:17:59
200773823,194,81  11.03.2018 09:17:43
200763823,194,75  11.03.2018 09:17:26
200753823,194,75  11.03.2018 09:17:10
200743823,194,69  11.03.2018 09:16:53
200733823,124,69  11.03.2018 09:16:37
200723823,194,69  11.03.2018 09:16:20
200713823,194,69  11.03.2018 09:16:04
200703823,194,75  11.03.2018 09:15:47
200693823,194,75  11.03.2018 09:15:31
200683823,194,69  11.03.2018 09:15:15
200673823,194,69  11.03.2018 09:14:58
200663823,194,62  11.03.2018 09:14:42
200653823,194,62  11.03.2018 09:14:25
200643823,194,69  11.03.2018 09:14:09
200633823,124,69  11.03.2018 09:13:52
200623823,124,62  11.03.2018 09:13:36
200613823,194,56  11.03.2018 09:13:19
200603823,194,56  11.03.2018 09:13:03
200593823,194,50  11.03.2018 09:12:46
200583823,194,50  11.03.2018 09:12:30
200573823,194,56  11.03.2018 09:12:14
200563823,194,50  11.03.2018 09:11:57
200553823,194,37  11.03.2018 09:11:41
200543823,194,37  11.03.2018 09:11:24
200533823,194,31  11.03.2018 09:11:08
200523823,194,25  11.03.2018 09:10:51
200513823,124,25  11.03.2018 09:10:35
200503823,194,12  11.03.2018 09:10:18
200493823,124,06  11.03.2018 09:10:02
200483823,124,00  11.03.2018 09:09:45
200473823,123,94  11.03.2018 09:09:29
200463823,193,87  11.03.2018 09:09:12
200453823,193,81  11.03.2018 09:08:56
200443823,193,75  11.03.2018 09:08:40
200433823,193,75  11.03.2018 09:08:23
200423823,193,75  11.03.2018 09:08:07
200413823,193,69  11.03.2018 09:07:50
200403823,193,75  11.03.2018 09:07:34
200393823,193,75  11.03.2018 09:07:17
200383823,193,81  11.03.2018 09:07:01
200373823,193,81  11.03.2018 09:06:44
200363823,193,87  11.03.2018 09:06:28
200353823,123,81  11.03.2018 09:06:11
200343823,193,87  11.03.2018 09:05:55
200333823,123,87  11.03.2018 09:05:39
200323823,123,81  11.03.2018 09:05:22
200313823,123,81  11.03.2018 09:05:06
200303823,123,75  11.03.2018 09:04:49
200293823,193,69  11.03.2018 09:04:33
200283823,123,56  11.03.2018 09:04:16
200273823,193,69  11.03.2018 09:04:00
200263823,123,62  11.03.2018 09:03:43
200253823,193,62  11.03.2018 09:03:27
200243823,193,69  11.03.2018 09:03:10
200233823,193,69  11.03.2018 09:02:54
200223823,193,69  11.03.2018 09:02:38
200213823,193,62  11.03.2018 09:02:21
200203823,253,56  11.03.2018 09:02:04
200193823,253,56  11.03.2018 09:01:48
200183823,253,56  11.03.2018 09:01:33
200173823,253,50  11.03.2018 09:01:18
200163823,253,50  11.03.2018 09:01:02
200153823,253,50  11.03.2018 09:00:45
200143823,253,44  11.03.2018 09:00:29
200133823,193,50  11.03.2018 09:00:13
200123823,193,56  11.03.2018 08:59:56
200113823,253,56  11.03.2018 08:59:40
200103823,253,62  11.03.2018 08:59:23
200093823,253,56  11.03.2018 08:59:07
200083823,253,62  11.03.2018 08:58:50
200073823,193,56  11.03.2018 08:58:34
200063823,193,50  11.03.2018 08:58:17
200053823,193,44  11.03.2018 08:58:01
200043823,193,31  11.03.2018 08:57:44
200033823,193,31  11.03.2018 08:57:28
200023823,193,37  11.03.2018 08:57:11
200013823,123,37  11.03.2018 08:56:55
200003823,193,37  11.03.2018 08:56:39
199993823,193,37  11.03.2018 08:56:22
199983823,193,37  11.03.2018 08:56:06
199973823,193,31  11.03.2018 08:55:49
199963823,193,19  11.03.2018 08:55:33
199953823,193,19  11.03.2018 08:55:16
199943823,193,12  11.03.2018 08:55:00
199933823,193,06  11.03.2018 08:54:43
199923823,123,06  11.03.2018 08:54:27
199913823,193,19  11.03.2018 08:54:10
199903823,123,31  11.03.2018 08:53:54
199893823,123,44  11.03.2018 08:53:38
199883823,123,56  11.03.2018 08:53:21
199873823,123,62  11.03.2018 08:53:05
199863823,123,56  11.03.2018 08:52:48
199853823,123,56  11.03.2018 08:52:32
199843823,123,50  11.03.2018 08:52:15
199833823,123,25  11.03.2018 08:51:59
199823823,123,00  11.03.2018 08:51:42
199813823,122,94  11.03.2018 08:51:26
199803823,122,81  11.03.2018 08:51:09
199793823,122,75  11.03.2018 08:50:53
199783823,122,81  11.03.2018 08:50:37
199773823,122,81  11.03.2018 08:50:20
199763823,122,87  11.03.2018 08:50:04
199753823,122,87  11.03.2018 08:49:47
199743823,122,94  11.03.2018 08:49:31
199733823,123,00  11.03.2018 08:49:14
199723823,123,00  11.03.2018 08:48:57
199713823,122,94  11.03.2018 08:48:38
199703823,123,00  11.03.2018 08:48:22
199693823,123,00  11.03.2018 08:48:05
199683823,123,00  11.03.2018 08:47:49
199673823,123,00  11.03.2018 08:47:32
199663823,123,00  11.03.2018 08:47:16
199653823,123,06  11.03.2018 08:46:59
199643823,123,06  11.03.2018 08:46:43
199633823,123,06  11.03.2018 08:46:26
199623823,123,06  11.03.2018 08:46:10
199613823,123,12  11.03.2018 08:45:54
199603823,123,19  11.03.2018 08:45:37
199593823,123,25  11.03.2018 08:45:21
199583823,123,37  11.03.2018 08:45:04
199573823,123,44  11.03.2018 08:44:48
199563823,063,56  11.03.2018 08:44:31
199553823,123,75  11.03.2018 08:44:15
199543823,123,94  11.03.2018 08:43:58
199533823,124,06  11.03.2018 08:43:42
199523823,124,00  11.03.2018 08:43:25
199513823,124,06  11.03.2018 08:43:09
199503823,124,19  11.03.2018 08:42:52
199493823,064,25  11.03.2018 08:42:36
199483823,064,31  11.03.2018 08:42:20
199473823,064,50  11.03.2018 08:42:03
199463823,124,75  11.03.2018 08:41:47
199453823,064,62  11.03.2018 08:41:30
199443823,064,37  11.03.2018 08:41:14
199433823,063,87  11.03.2018 08:40:57
199423823,063,37  11.03.2018 08:40:41
199413823,063,50  11.03.2018 08:40:24
199403823,063,44  11.03.2018 08:40:08
199393823,063,37  11.03.2018 08:39:51
199383823,063,37  11.03.2018 08:39:35
199373823,063,37  11.03.2018 08:39:19
199363823,063,44  11.03.2018 08:39:02
199353823,003,44  11.03.2018 08:38:46
199343823,063,44  11.03.2018 08:38:29
199333823,003,31  11.03.2018 08:38:13
199323823,063,12  11.03.2018 08:37:56
199313823,063,06  11.03.2018 08:37:40
199303823,062,94  11.03.2018 08:37:23
199293823,062,94  11.03.2018 08:37:07
199283823,062,94  11.03.2018 08:36:50
199273823,003,00  11.03.2018 08:36:34
199263823,002,94  11.03.2018 08:36:17
199253823,002,87  11.03.2018 08:36:01
199243823,002,87  11.03.2018 08:35:45
199233823,002,87  11.03.2018 08:35:28
199223823,002,81  11.03.2018 08:35:12
199213823,002,87  11.03.2018 08:34:55
199203823,002,94  11.03.2018 08:34:39
199193823,002,81  11.03.2018 08:34:22
199183822,942,69  11.03.2018 08:34:06
199173822,942,62  11.03.2018 08:33:49
199163823,002,56  11.03.2018 08:33:33
199153823,002,50  11.03.2018 08:33:16
199143823,062,44  11.03.2018 08:33:00
199133823,002,31  11.03.2018 08:32:43
199123823,002,25  11.03.2018 08:32:27
199113822,942,19  11.03.2018 08:32:11
199103822,942,12  11.03.2018 08:31:54
199093822,942,12  11.03.2018 08:31:38
199083822,942,06  11.03.2018 08:31:21
199073822,942,00  11.03.2018 08:31:05
199063822,942,00  11.03.2018 08:30:48
199053822,942,00  11.03.2018 08:30:32
199043822,942,00  11.03.2018 08:30:15
199033822,942,00  11.03.2018 08:29:59
199023822,872,06  11.03.2018 08:29:42
199013822,872,12  11.03.2018 08:29:26
199003822,872,12  11.03.2018 08:29:10
198993822,691,44  11.03.2018 08:09:05
198983822,250,25  11.03.2018 07:49:00
198973821,870,06  11.03.2018 07:28:52
198963821,620,00  11.03.2018 07:08:47
198953821,56-1,81  11.03.2018 06:48:42
198943821,69-1,44  11.03.2018 06:28:34
198933821,69-1,19  11.03.2018 06:08:29
198923821,87-1,12  11.03.2018 05:48:24
198913822,06-0,88  11.03.2018 05:28:16
198903822,13-1,37  11.03.2018 05:08:11
198893822,37-1,37  11.03.2018 04:48:06
198883822,50-0,62  11.03.2018 04:27:59
198873822,56-0,31  11.03.2018 04:07:54
198863822,69-0,31  11.03.2018 03:47:49
198853822,75-0,25  11.03.2018 03:27:41
198843822,810,13  11.03.2018 03:07:36
198833822,810,19  11.03.2018 02:47:31
198823822,810,13  11.03.2018 02:27:24
198813823,440,06  11.03.2018 02:07:19
198803822,62-0,19  11.03.2018 01:47:15
198793822,440,31  11.03.2018 01:27:07
198783822,190,00  11.03.2018 01:07:02
198773822,060,69  11.03.2018 00:46:59
198763821,811,44  11.03.2018 00:26:57
198753821,941,81  11.03.2018 00:06:52
198743821,872,00  10.03.2018 23:46:44
198733822,131,19  10.03.2018 23:26:35
198723822,191,37  10.03.2018 23:06:33
198713822,251,44  10.03.2018 22:46:31
198703822,193,31  10.03.2018 22:26:29
198693822,063,50  10.03.2018 22:06:27
198683821,874,31  10.03.2018 21:46:25
198673822,004,37  10.03.2018 21:26:23
198663823,444,25  10.03.2018 21:06:21
198653823,314,94  10.03.2018 20:46:18
198643822,815,94  10.03.2018 20:26:16
198633823,006,06  10.03.2018 20:06:14
198623822,816,00  10.03.2018 19:46:12
198613822,626,31  10.03.2018 19:26:10
198603822,256,75  10.03.2018 19:06:08
198593821,567,25  10.03.2018 18:46:06
198583819,317,62  10.03.2018 18:26:04
198573819,068,00  10.03.2018 18:06:02
198563819,258,75  10.03.2018 17:46:00
198553819,818,94  10.03.2018 17:25:57
198543818,879,38  10.03.2018 17:05:55
198533818,759,81  10.03.2018 16:45:53
198523820,199,94  10.03.2018 16:25:51
198513821,1214,06  10.03.2018 16:05:49
198503823,1214,31  10.03.2018 15:45:47
198493822,4415,19  10.03.2018 15:25:44
198483822,2513,13  10.03.2018 15:05:43
198473822,6914,56  10.03.2018 14:45:40
198463822,6211,63  10.03.2018 14:25:38
198453822,509,38  10.03.2018 14:05:36
198443822,3710,56  10.03.2018 13:45:34
198433822,2510,81  10.03.2018 13:25:32
198423822,2510,50  10.03.2018 12:50:59
198413822,067,56  10.03.2018 12:30:57
198403822,007,62  10.03.2018 12:10:55
198393822,137,69  10.03.2018 11:50:53
198383822,378,00  10.03.2018 11:30:51
198373822,316,44  10.03.2018 11:10:49
198363822,376,06  10.03.2018 10:50:47
198353822,376,62  10.03.2018 10:30:45
198343822,447,06  10.03.2018 10:10:43
198333822,315,25  10.03.2018 09:50:41
198323822,316,87  10.03.2018 09:30:39
198313822,194,31  10.03.2018 09:10:37
198303822,134,00  10.03.2018 08:50:35
198293821,943,25  10.03.2018 08:30:33
198283821,942,06  10.03.2018 08:10:31
198273822,001,31  10.03.2018 07:50:29
198263822,13-0,69  10.03.2018 06:50:05
198253822,31-0,13  10.03.2018 06:09:54
198243822,31-0,31  10.03.2018 05:49:39
198233822,37-0,25  10.03.2018 05:29:31
198223822,440,75  10.03.2018 05:09:18
198213822,502,19  10.03.2018 04:49:11
198203822,502,31  10.03.2018 04:29:01
198193822,561,25  10.03.2018 04:08:49
198183822,561,50  10.03.2018 03:48:41
198173822,561,69  10.03.2018 03:28:32
198163822,622,25  10.03.2018 03:08:20
198153822,562,06  10.03.2018 02:48:15
198143822,562,31  10.03.2018 02:28:07
198133822,622,44  10.03.2018 02:07:53
198123822,562,37  10.03.2018 01:47:45
198113822,502,50  10.03.2018 01:27:38
198103822,442,87  10.03.2018 01:07:36
198093822,563,25  10.03.2018 00:47:33
198083822,563,12  10.03.2018 00:27:31
198073822,503,12  10.03.2018 00:07:29
198063822,503,06  09.03.2018 23:47:27
198053822,562,87  09.03.2018 23:27:25
198043822,502,75  09.03.2018 23:07:23
198033822,563,00  09.03.2018 22:47:20
198023822,562,94  09.03.2018 22:27:18
198013822,503,37  09.03.2018 22:07:16
198003822,623,75  09.03.2018 21:47:14
197993822,623,94  09.03.2018 21:27:11
197983822,563,62  09.03.2018 21:07:09
197973822,503,69  09.03.2018 20:47:07
197963822,503,94  09.03.2018 20:27:05
197953822,503,81  09.03.2018 20:07:03
197943822,443,87  09.03.2018 19:47:01
197933822,503,81  09.03.2018 19:26:59
197923822,444,00  09.03.2018 19:06:57
197913822,444,37  09.03.2018 18:46:55
197903822,374,44  09.03.2018 18:26:53
197893822,375,12  09.03.2018 18:06:51
197883822,445,25  09.03.2018 17:46:49
197873822,375,06  09.03.2018 17:26:47
197863822,375,87  09.03.2018 17:06:44
197853822,447,00  09.03.2018 16:46:42
197843822,315,81  09.03.2018 16:26:40
197833822,196,44  09.03.2018 16:06:38
197823822,255,75  09.03.2018 15:46:36
197813822,316,00  09.03.2018 15:26:34
197803822,376,44  09.03.2018 15:06:32
197793822,378,69  09.03.2018 14:46:30
197783822,319,56  09.03.2018 14:26:28
197773822,315,00  09.03.2018 14:06:26
197763822,445,37  09.03.2018 13:46:24
197753822,506,62  09.03.2018 13:26:22
197743822,375,87  09.03.2018 13:06:20
197733822,375,81  09.03.2018 12:46:18
197723822,255,37  09.03.2018 12:26:16
197713822,134,69  09.03.2018 12:06:14
197703822,065,50  09.03.2018 11:46:12
197693822,064,94  09.03.2018 11:26:10
197683822,134,12  09.03.2018 11:06:08
197673822,313,62  09.03.2018 10:46:06
197663822,623,19  09.03.2018 10:26:03
197653822,942,37  09.03.2018 10:06:01
197643823,002,87  09.03.2018 09:45:59
197633823,061,50  09.03.2018 09:25:57
197623823,060,88  09.03.2018 09:05:55
197613823,120,88  09.03.2018 08:45:53
197603823,120,94  09.03.2018 08:25:51
197593823,121,25  09.03.2018 08:05:49
197583823,121,87  09.03.2018 07:45:47
197573823,001,81  09.03.2018 07:25:45
197563823,061,94  09.03.2018 07:05:43
197553823,002,06  09.03.2018 06:45:41
197543823,062,12  09.03.2018 06:25:39
197533823,191,94  09.03.2018 06:05:37
197523823,251,75  09.03.2018 05:45:35
197513823,311,75  09.03.2018 05:25:33
197503823,382,06  09.03.2018 05:05:31
197493823,442,19  09.03.2018 04:45:29
197483823,442,37  09.03.2018 04:25:27
197473823,442,69  09.03.2018 04:05:25
197463823,502,81  09.03.2018 03:45:23
197453823,502,81  09.03.2018 03:25:21
197443823,562,62  09.03.2018 03:05:19
197433823,562,44  09.03.2018 02:45:17
197423823,562,12  09.03.2018 02:25:15
197413823,502,00  09.03.2018 02:05:13
197403823,501,87  09.03.2018 01:45:11
197393823,561,62  09.03.2018 01:25:08
197383823,561,37  09.03.2018 01:05:06
197373823,561,69  09.03.2018 00:45:03
197363823,501,31  09.03.2018 00:25:01
197353823,560,75  09.03.2018 00:04:59
197343823,561,69  08.03.2018 23:44:49
197333823,622,12  08.03.2018 23:24:41
197323823,622,12  08.03.2018 23:04:30
197313823,561,81  08.03.2018 22:44:21
197303823,621,25  08.03.2018 22:24:14
197293823,690,94  08.03.2018 22:04:12
197283823,692,31  08.03.2018 21:44:10
197273823,692,19  08.03.2018 21:24:08
197263823,691,62  08.03.2018 21:04:06
197253823,691,50  08.03.2018 20:44:04
197243823,622,56  08.03.2018 20:24:02
197233823,622,69  08.03.2018 20:04:00
197223823,693,06  08.03.2018 19:43:58
197213823,625,37  08.03.2018 19:23:56
197203823,694,69  08.03.2018 19:03:54
197193823,628,69  08.03.2018 18:43:52
197183823,628,88  08.03.2018 18:23:50
197173823,629,38  08.03.2018 18:03:48
197163823,629,69  08.03.2018 17:43:45
197153823,5611,31  08.03.2018 17:23:43
197143823,6211,94  08.03.2018 17:03:42
197133823,6213,06  08.03.2018 16:43:39
197123823,5013,31  08.03.2018 16:23:37
197113823,3812,37  08.03.2018 16:03:35
197103823,3812,81  08.03.2018 15:43:33
197093823,4415,38  08.03.2018 15:23:31
197083823,3114,75  08.03.2018 15:03:29
197073823,3113,00  08.03.2018 14:43:27
197063823,3114,25  08.03.2018 14:23:25
197053823,1912,25  08.03.2018 14:03:23
197043823,1912,37  08.03.2018 13:43:21
197033823,2511,81  08.03.2018 13:23:19
197023823,3111,50  08.03.2018 13:03:17
197013823,2510,69  08.03.2018 12:43:15
197003823,3810,94  08.03.2018 12:23:13
196993823,3110,69  08.03.2018 12:03:11
196983823,258,75  08.03.2018 11:43:09
196973823,258,50  08.03.2018 11:23:07
196963823,257,75  08.03.2018 11:03:05
196953823,258,19  08.03.2018 10:43:03
196943823,258,31  08.03.2018 10:23:01
196933823,258,00  08.03.2018 10:02:58
196923823,257,56  08.03.2018 09:42:56
196913823,198,38  08.03.2018 09:22:54
196903823,258,75  08.03.2018 09:02:52
196893823,198,75  08.03.2018 08:42:50
196883823,068,31  08.03.2018 08:22:48
196873823,067,87  08.03.2018 08:02:46
196863823,067,75  08.03.2018 07:42:44
196853823,197,62  08.03.2018 07:22:42
196843823,197,37  08.03.2018 07:02:40
196833823,197,56  08.03.2018 06:42:38
196823823,257,19  08.03.2018 06:22:36
196813823,257,31  08.03.2018 06:02:34
196803823,196,50  08.03.2018 05:42:32
196793823,256,75  08.03.2018 05:22:30
196783823,316,87  08.03.2018 05:02:28
196773823,387,06  08.03.2018 04:42:26
196763823,387,31  08.03.2018 04:22:24
196753823,447,25  08.03.2018 04:02:22
196743823,506,75  08.03.2018 03:42:20
196733823,566,00  08.03.2018 03:22:18
196723823,626,62  08.03.2018 03:02:16
196713823,566,75  08.03.2018 02:42:14
196703823,627,19  08.03.2018 02:22:12
196693823,627,44  08.03.2018 02:02:10
196683823,567,37  08.03.2018 01:42:08
196673823,567,19  08.03.2018 01:22:06
196663823,567,25  08.03.2018 01:02:04
196653823,507,12  08.03.2018 00:42:01
196643823,507,00  08.03.2018 00:21:59
196633823,447,19  08.03.2018 00:01:57
196623823,447,56  07.03.2018 23:41:55
196613823,447,56  07.03.2018 23:21:53
196603823,448,13  07.03.2018 23:01:51
196593823,508,50  07.03.2018 22:41:49
196583823,508,69  07.03.2018 22:21:47
196573823,447,75  07.03.2018 22:01:45
196563823,448,00  07.03.2018 21:41:43
196553823,507,62  07.03.2018 21:21:41
196543823,447,75  07.03.2018 21:01:39
196533823,508,75  07.03.2018 20:41:37
196523823,508,94  07.03.2018 20:21:35
196513823,508,69  07.03.2018 20:01:33
196503823,449,06  07.03.2018 19:41:31
196493823,449,00  07.03.2018 19:21:29
196483823,389,19  07.03.2018 19:01:27
196473823,389,63  07.03.2018 18:41:24
196463823,3810,38  07.03.2018 18:21:22
196453823,3110,94  07.03.2018 18:01:20
196443823,3111,31  07.03.2018 17:41:18
196433823,3112,50  07.03.2018 17:21:16
196423823,3112,75  07.03.2018 17:01:14
196413823,2513,31  07.03.2018 16:41:12
196403823,3113,44  07.03.2018 16:21:10
196393823,3114,38  07.03.2018 16:01:08
196383823,1214,13  07.03.2018 15:41:06
196373823,1213,56  07.03.2018 15:21:04
196363823,1213,69  07.03.2018 15:01:01
196353823,1916,81  07.03.2018 14:40:59
196343823,0616,56  07.03.2018 14:20:57
196333823,0014,00  07.03.2018 14:00:53
196323823,0013,13  07.03.2018 13:40:51
196313822,8714,19  07.03.2018 13:20:49
196303822,8716,56  07.03.2018 13:00:47
196293822,8715,31  07.03.2018 12:40:45
196283822,8713,94  07.03.2018 12:20:43
196273822,8112,25  07.03.2018 12:00:41
196263822,8111,38  07.03.2018 11:40:39
196253822,7511,25  07.03.2018 11:20:37
196243822,6910,63  07.03.2018 11:00:35
196233822,7510,13  07.03.2018 10:40:33
196223822,759,69  07.03.2018 10:20:31
196213822,6210,06  07.03.2018 10:00:29
196203822,628,06  07.03.2018 09:40:27
196193822,565,44  07.03.2018 09:20:25
196183822,565,56  07.03.2018 09:00:23
196173822,505,62  07.03.2018 08:40:21
196163822,373,50  07.03.2018 08:20:19
196153822,312,87  07.03.2018 08:00:17
196143822,191,94  07.03.2018 07:40:15
196133822,191,31  07.03.2018 07:20:13
196123822,251,62  07.03.2018 07:00:11
196113822,252,25  07.03.2018 06:40:09
196103822,251,62  07.03.2018 06:20:06
196093822,312,25  07.03.2018 06:00:04
196083822,372,75  07.03.2018 05:40:02
196073822,372,81  07.03.2018 05:20:00
196063822,442,44  07.03.2018 04:59:58
196053822,502,56  07.03.2018 04:39:56
196043822,502,31  07.03.2018 04:19:54
196033822,503,25  07.03.2018 03:59:52
196023822,503,06  07.03.2018 03:39:50
196013822,563,44  07.03.2018 03:19:48
196003822,503,50  07.03.2018 02:59:46
195993822,563,56  07.03.2018 02:39:44
195983822,563,06  07.03.2018 02:19:42
195973822,563,19  07.03.2018 01:59:40
195963822,563,69  07.03.2018 01:39:38
195953822,564,19  07.03.2018 01:19:36
195943822,565,19  07.03.2018 00:59:34
195933822,505,25  07.03.2018 00:39:32
195923822,565,25  07.03.2018 00:19:30
195913822,505,62  06.03.2018 23:59:28
195903822,505,75  06.03.2018 23:39:26
195893822,505,87  06.03.2018 23:19:24
195883822,505,81  06.03.2018 22:59:22
195873822,446,00  06.03.2018 22:39:20
195863822,445,62  06.03.2018 22:19:18
195853822,565,31  06.03.2018 21:59:16
195843822,506,56  06.03.2018 21:39:14
195833822,505,94  06.03.2018 21:19:12
195823822,505,50  06.03.2018 20:59:10
195813822,505,94  06.03.2018 20:39:08
195803822,508,13  06.03.2018 20:19:06
195793822,508,38  06.03.2018 19:59:03
195783822,507,50  06.03.2018 19:39:01
195773822,507,44  06.03.2018 19:18:59
195763822,507,81  06.03.2018 18:58:57
195753822,508,31  06.03.2018 18:38:55
195743822,508,19  06.03.2018 18:18:53
195733822,508,69  06.03.2018 17:58:51
195723822,448,56  06.03.2018 17:38:49
195713822,569,50  06.03.2018 17:18:47
195703822,629,00  06.03.2018 16:58:45
195693822,569,31  06.03.2018 16:38:43
195683822,6210,00  06.03.2018 16:18:41
195673822,5610,13  06.03.2018 15:58:39
195663822,6213,00  06.03.2018 15:38:37
195653822,5612,75  06.03.2018 15:18:35
195643822,3112,00  06.03.2018 14:58:33
195633822,197,00  06.03.2018 14:38:31
195623822,134,94  06.03.2018 14:18:29
195613822,194,31  06.03.2018 13:58:27
195603822,134,12  06.03.2018 13:38:25
195593822,194,25  06.03.2018 13:18:23
195583822,194,12  06.03.2018 12:58:21
195573822,194,19  06.03.2018 12:38:19
195563822,134,50  06.03.2018 12:18:16
195553822,064,56  06.03.2018 11:58:14
195543822,134,75  06.03.2018 11:38:12
195533822,135,06  06.03.2018 11:18:10
195523822,135,31  06.03.2018 10:58:08
195513822,135,75  06.03.2018 10:38:06
195503822,195,75  06.03.2018 10:18:04
195493822,135,37  06.03.2018 09:58:02
195483822,134,75  06.03.2018 09:38:00
195473822,137,19  06.03.2018 09:17:58
195463822,067,25  06.03.2018 08:57:56
195453822,006,81  06.03.2018 08:37:54
195443821,874,12  06.03.2018 08:17:52
195433821,815,12  06.03.2018 07:57:50
195423821,754,31  06.03.2018 07:37:48
195413821,813,56  06.03.2018 07:17:46
195403821,753,44  06.03.2018 06:57:44
195393821,874,25  06.03.2018 06:37:41
195383821,944,44  06.03.2018 06:17:40
195373821,944,25  06.03.2018 05:57:38
195363822,003,31  06.03.2018 05:37:36
195353822,002,94  06.03.2018 05:17:33
195343822,062,56  06.03.2018 04:57:31
195333822,062,50  06.03.2018 04:37:29
195323822,191,87  06.03.2018 04:17:27
195313822,132,50  06.03.2018 03:57:25
195303822,192,31  06.03.2018 03:37:23
195293822,252,31  06.03.2018 03:17:21
195283822,312,37  06.03.2018 02:57:19
195273822,312,12  06.03.2018 02:37:17
195263822,312,56  06.03.2018 02:17:15
195253822,372,50  06.03.2018 01:57:13
195243822,442,37  06.03.2018 01:37:10
195233822,442,19  06.03.2018 01:17:08
195223822,441,56  06.03.2018 00:57:06
195213822,501,87  06.03.2018 00:37:04
195203822,502,94  06.03.2018 00:17:02
195193822,562,75  05.03.2018 23:57:00
195183822,562,69  05.03.2018 23:36:58
195173822,622,37  05.03.2018 23:16:56
195163822,753,00  05.03.2018 22:56:54
195153822,623,25  05.03.2018 22:36:52
195143822,624,56  05.03.2018 22:16:50
195133822,624,31  05.03.2018 21:56:48
195123822,624,50  05.03.2018 21:36:46
195113822,624,81  05.03.2018 21:16:44
195103822,625,19  05.03.2018 20:56:42
195093822,626,06  05.03.2018 20:36:40
195083822,626,12  05.03.2018 20:16:38
195073822,626,62  05.03.2018 19:56:36
195063822,626,56  05.03.2018 19:36:34
195053822,627,56  05.03.2018 19:16:32
195043822,698,19  05.03.2018 18:56:30
195033822,699,13  05.03.2018 18:36:28
195023822,699,69  05.03.2018 18:16:26
195013822,7510,31  05.03.2018 17:56:24
195003822,8110,88  05.03.2018 17:36:22
194993822,8711,31  05.03.2018 17:16:20
194983822,9411,63  05.03.2018 16:56:18
194973822,8711,19  05.03.2018 16:36:15
194963823,0012,56  05.03.2018 16:16:14
194953822,9412,50  05.03.2018 15:56:12
194943822,8113,06  05.03.2018 15:36:09
194933822,8714,75  05.03.2018 15:16:07
194923822,7514,50  05.03.2018 14:56:05
194913822,6912,69  05.03.2018 14:36:03
194903822,6911,88  05.03.2018 14:16:01
194893822,6214,06  05.03.2018 13:55:59
194883822,6211,06  05.03.2018 13:35:57
194873822,5611,69  05.03.2018 13:15:55
194863822,5610,19  05.03.2018 12:55:53
194853822,509,31  05.03.2018 12:35:51
194843822,509,63  05.03.2018 12:15:49
194833822,449,44  05.03.2018 11:55:47
194823822,379,13  05.03.2018 11:35:45
194813822,379,06  05.03.2018 11:15:43
194803822,448,13  05.03.2018 10:55:41
194793822,376,87  05.03.2018 10:35:39
194783822,376,56  05.03.2018 10:15:37
194773822,315,37  05.03.2018 09:55:35
194763822,374,44  05.03.2018 09:35:33
194753822,314,25  05.03.2018 09:15:31
194743822,313,81  05.03.2018 08:55:29
194733822,253,31  05.03.2018 08:35:27
194723822,252,00  05.03.2018 08:15:24
194713822,061,19  05.03.2018 07:55:22
194703821,941,69  05.03.2018 07:35:20
194693821,941,31  05.03.2018 07:15:17
194683821,941,56  05.03.2018 06:55:15
194673821,941,56  05.03.2018 06:35:13
194663822,002,06  05.03.2018 06:15:11
194653821,942,06  05.03.2018 05:55:09
194643822,062,19  05.03.2018 05:35:07
194633822,131,81  05.03.2018 05:15:05
194623822,191,56  05.03.2018 04:55:03
194613822,251,75  05.03.2018 04:35:01
194603822,311,81  05.03.2018 04:14:59
194593822,311,56  05.03.2018 03:54:57
194583822,371,56  05.03.2018 03:34:55
194573822,441,44  05.03.2018 03:14:53
194563822,441,31  05.03.2018 02:54:51
194553822,371,37  05.03.2018 02:34:49
194543822,440,94  05.03.2018 02:14:47
194533822,441,12  05.03.2018 01:54:45
194523822,440,44  05.03.2018 01:34:43
194513822,440,19  05.03.2018 01:14:41
194503822,441,06  05.03.2018 00:54:39
194493822,501,56  05.03.2018 00:34:37
194483822,441,94  05.03.2018 00:14:35
194473822,372,19  04.03.2018 23:54:33
194463822,373,12  04.03.2018 23:34:31
194453822,503,37  04.03.2018 23:14:29
194443822,563,56  04.03.2018 22:54:27
194433822,563,50  04.03.2018 22:34:25
194423822,563,87  04.03.2018 22:14:23
194413822,564,31  04.03.2018 21:54:21
194403822,564,62  04.03.2018 21:34:19
194393822,504,94  04.03.2018 21:14:17
194383822,444,50  04.03.2018 20:54:15
194373822,374,06  04.03.2018 20:34:13
194363822,373,81  04.03.2018 20:14:11
194353822,507,06  04.03.2018 19:54:09
194343822,507,62  04.03.2018 19:34:07
194333822,377,75  04.03.2018 19:14:04
194323822,378,00  04.03.2018 18:54:02
194313822,377,81  04.03.2018 18:34:00
194303822,378,25  04.03.2018 18:13:56
194293822,318,56  04.03.2018 17:53:46
194283822,258,38  04.03.2018 17:33:41
194273822,258,56  04.03.2018 17:13:39
194263822,258,69  04.03.2018 16:53:37
194253822,199,00  04.03.2018 16:33:35
194243822,139,38  04.03.2018 16:13:33
194233822,139,19  04.03.2018 15:53:31
194223822,138,75  04.03.2018 15:33:28
194213822,138,56  04.03.2018 15:13:26
194203822,008,63  04.03.2018 14:53:25
194193822,068,75  04.03.2018 14:33:22
194183822,198,56  04.03.2018 14:13:20
194173822,259,00  04.03.2018 13:53:18
194163822,449,63  04.03.2018 13:33:16
194153822,569,69  04.03.2018 13:13:13
194143822,449,31  04.03.2018 12:53:12
194133822,379,25  04.03.2018 12:33:10
194123822,509,19  04.03.2018 12:13:07
194113822,448,44  04.03.2018 11:53:05
194103822,448,63  04.03.2018 11:33:03
194093822,378,56  04.03.2018 11:13:01
194083822,317,37  04.03.2018 10:52:59
194073822,447,00  04.03.2018 10:32:57
194063822,446,75  04.03.2018 10:12:55
194053822,446,75  04.03.2018 09:52:53
194043822,446,44  04.03.2018 09:32:51
194033822,375,69  04.03.2018 09:12:49
194023822,375,12  04.03.2018 08:52:47
194013822,314,37  04.03.2018 08:32:45
194003822,313,56  04.03.2018 08:12:43
193993822,253,06  04.03.2018 07:52:41
193983822,252,62  04.03.2018 07:32:39
193973822,252,12  04.03.2018 07:12:37
193963822,191,56  04.03.2018 06:52:35
193953822,132,00  04.03.2018 06:32:33
193943822,132,56  04.03.2018 06:12:31
193933822,192,75  04.03.2018 05:52:29
193923822,252,37  04.03.2018 05:32:27
193913822,314,31  04.03.2018 05:12:25
193903822,314,62  04.03.2018 04:52:23
193893822,374,25  04.03.2018 04:32:21
193883822,373,37  04.03.2018 04:12:19
193873822,374,81  04.03.2018 03:52:17
193863822,445,37  04.03.2018 03:32:15
193853822,444,87  04.03.2018 03:12:13
193843822,444,44  04.03.2018 02:52:11
193833822,505,00  04.03.2018 02:32:09
193823822,505,25  04.03.2018 02:12:07
193813822,504,44  04.03.2018 01:52:05
193803822,504,37  04.03.2018 01:32:03
193793822,565,06  04.03.2018 01:12:01
193783822,565,25  04.03.2018 00:51:59
193773822,565,81  04.03.2018 00:31:56
193763822,696,12  04.03.2018 00:11:54
193753822,815,94  03.03.2018 23:51:52
193743822,756,31  03.03.2018 23:31:49
193733822,696,56  03.03.2018 23:11:45
193723822,626,44  03.03.2018 22:51:40
193713822,627,50  03.03.2018 22:31:38
193703822,567,37  03.03.2018 22:11:36
193693822,626,87  03.03.2018 21:51:34
193683822,566,81  03.03.2018 21:31:32
193673822,627,37  03.03.2018 21:11:30
193663822,567,37  03.03.2018 20:51:27
193653822,626,56  03.03.2018 20:31:25
193643822,627,00  03.03.2018 20:11:23
193633822,506,87  03.03.2018 19:51:21
193623822,447,00  03.03.2018 19:31:19
193613822,446,81  03.03.2018 19:11:17
193603822,317,31  03.03.2018 18:51:15
193593822,317,31  03.03.2018 18:31:13
193583822,377,87  03.03.2018 18:11:11
193573822,318,19  03.03.2018 17:51:09
193563822,318,13  03.03.2018 17:31:07
193553822,318,44  03.03.2018 17:11:05
193543822,258,69  03.03.2018 16:51:03
193533822,259,06  03.03.2018 16:31:01
193523822,259,00  03.03.2018 16:10:59
193513822,259,31  03.03.2018 15:50:57
193503822,2510,13  03.03.2018 15:30:55
193493822,3110,06  03.03.2018 15:10:44
193483822,3710,25  03.03.2018 14:50:32
193473822,5011,69  03.03.2018 14:10:12
193463822,3112,44  03.03.2018 13:50:01
193453822,1913,88  03.03.2018 13:29:59
193443822,1913,25  03.03.2018 13:09:57
193433822,0012,25  03.03.2018 12:49:55
193423822,0011,94  03.03.2018 12:29:53
193413822,0010,50  03.03.2018 12:09:52
193403822,198,81  03.03.2018 11:49:40
193393822,138,56  03.03.2018 11:29:38
193383822,067,94  03.03.2018 11:09:36
193373821,947,81  03.03.2018 10:49:34
193363821,946,94  03.03.2018 10:29:32
193353821,876,81  03.03.2018 10:09:30
193343821,876,62  03.03.2018 09:49:28
193333821,816,19  03.03.2018 09:29:26
193323821,876,62  03.03.2018 09:09:23
193313821,815,62  03.03.2018 08:49:21
193303821,694,25  03.03.2018 08:29:20
193293821,623,69  03.03.2018 08:09:17
193283821,562,94  03.03.2018 07:49:16
193273821,443,25  03.03.2018 07:29:14
193263821,502,69  03.03.2018 07:09:12
193253821,503,94  03.03.2018 06:49:10
193243821,444,00  03.03.2018 06:29:08
193233821,444,37  03.03.2018 06:09:05
193223821,504,12  03.03.2018 05:49:03
193213821,504,25  03.03.2018 05:29:01
193203821,564,69  03.03.2018 05:08:59
193193821,564,25  03.03.2018 04:48:57
193183821,624,62  03.03.2018 04:28:55
193173821,624,44  03.03.2018 04:08:53
193163821,624,62  03.03.2018 03:48:51
193153821,625,06  03.03.2018 03:28:49
193143821,624,50  03.03.2018 03:08:47
193133821,625,25  03.03.2018 02:48:45
193123821,755,06  03.03.2018 02:28:43
193113821,754,94  03.03.2018 02:08:41
193103821,694,87  03.03.2018 01:48:39
193093821,694,87  03.03.2018 01:28:37
193083821,624,94  03.03.2018 01:08:35
193073821,564,94  03.03.2018 00:48:32
193063821,563,87  03.03.2018 00:28:30
193053821,503,12  03.03.2018 00:08:28
193043821,565,00  02.03.2018 23:48:26
193033821,504,44  02.03.2018 23:28:24
193023821,503,81  02.03.2018 23:08:22
193013821,563,62  02.03.2018 22:48:20
193003821,562,37  02.03.2018 22:28:18
192993821,622,62  02.03.2018 22:08:16
192983821,621,87  02.03.2018 21:48:14
192973821,562,19  02.03.2018 21:08:05
192963821,562,75  02.03.2018 20:47:53
192953821,503,56  02.03.2018 20:27:51
192943821,503,25  02.03.2018 20:07:50
192933821,442,87  02.03.2018 19:27:28
192923821,443,19  02.03.2018 19:07:16
192913821,444,44  02.03.2018 18:47:14
192903821,374,94  02.03.2018 18:27:12
192893821,445,06  02.03.2018 18:07:10
192883821,445,62  02.03.2018 17:47:08
192873821,315,87  02.03.2018 17:27:06
192863821,317,19  02.03.2018 17:07:04
192853821,317,06  02.03.2018 16:47:02
192843821,257,44  02.03.2018 16:27:00
192833821,128,06  02.03.2018 16:06:58
192823821,129,75  02.03.2018 15:46:56
192813821,0013,81  02.03.2018 15:26:54
192803820,8810,06  02.03.2018 15:06:52
192793820,8813,19  02.03.2018 14:46:49
192783820,7512,94  02.03.2018 14:26:47
192773820,7510,00  02.03.2018 14:06:45
192763820,567,94  02.03.2018 13:46:43
192753820,449,25  02.03.2018 13:26:41
192743820,445,50  02.03.2018 13:06:39
192733820,374,37  02.03.2018 12:46:37
192723820,315,87  02.03.2018 12:26:35
192713820,312,81  02.03.2018 12:06:32
192703820,250,00  02.03.2018 11:46:30
192693820,190,31  02.03.2018 11:26:28
192683820,19-2,25  02.03.2018 11:06:26
192673820,19-2,87  02.03.2018 10:46:24
192663820,00-2,94  02.03.2018 10:26:22
192653820,06-3,75  02.03.2018 10:06:20
192643819,94-4,81  02.03.2018 09:46:18
192633819,87-5,44  02.03.2018 09:26:16
192623819,87-5,44  02.03.2018 09:06:14
192613819,75-5,94  02.03.2018 08:46:12
192603819,62-8,00  02.03.2018 08:26:10
192593819,75-9,50  02.03.2018 08:06:08
192583819,56-9,69  02.03.2018 07:46:06
192573819,37-10,31  02.03.2018 07:26:04
192563819,56-11,50  02.03.2018 07:06:02
192553819,56-9,75  02.03.2018 06:46:00
192543819,81-10,00  02.03.2018 06:25:58
192533819,87-9,88  02.03.2018 06:05:56
192523820,00-10,06  02.03.2018 05:45:54
192513820,12-10,56  02.03.2018 05:25:52
192503819,94-10,44  02.03.2018 05:05:50
192493820,06-10,06  02.03.2018 04:45:48
192483820,19-10,31  02.03.2018 04:25:46
192473820,31-10,25  02.03.2018 04:05:44
192463820,44-10,31  02.03.2018 03:45:42
192453820,50-9,63  02.03.2018 03:25:40
192443820,56-9,00  02.03.2018 03:05:38
192433820,56-9,81  02.03.2018 02:45:36
192423820,69-8,38  02.03.2018 02:25:34
192413820,75-8,38  02.03.2018 02:05:32
192403820,81-8,13  02.03.2018 01:45:27
192393820,81-8,06  02.03.2018 01:25:24
192383820,94-8,00  02.03.2018 01:05:22
192373820,88-7,31  02.03.2018 00:45:20
192363820,94-6,62  02.03.2018 00:25:18
192353820,94-7,00  02.03.2018 00:05:16
192343821,00-6,25  01.03.2018 23:45:14
192333821,00-5,50  01.03.2018 23:25:12
192323821,12-5,00  01.03.2018 23:05:10
192313821,12-4,12  01.03.2018 22:45:08
192303821,19-3,50  01.03.2018 22:25:06
192293821,31-4,31  01.03.2018 22:05:04
192283821,31-3,94  01.03.2018 21:45:02
192273821,37-3,56  01.03.2018 21:25:01
192263821,50-4,06  01.03.2018 21:04:49
192253821,44-3,81  01.03.2018 20:44:47
192243821,44-4,12  01.03.2018 20:24:44
192233821,50-3,56  01.03.2018 20:04:41
192223821,56-2,56  01.03.2018 19:44:39
192213821,62-2,62  01.03.2018 19:24:36
192203821,62-2,62  01.03.2018 19:04:34
192193821,69-2,25  01.03.2018 18:44:32
192183821,75-2,06  01.03.2018 18:24:30
192173821,75-1,69  01.03.2018 18:04:28
192163821,81-1,50  01.03.2018 17:44:26
192153821,69-1,37  01.03.2018 17:24:24
192143821,69